GEFSSGP_con_prob3kmehi_078.txt.gz
EHI
0 0 0 0 0 0 0 0 0 0 0 0 0 0 0 0 2 4 6 8 19 41 57 63 72 78 70 63 70 79 82 82 78 70 59 45 32 20 15 13 9 8 9 11 15 17 18 17 16
0 0 0 0 0 0 0 0 0 0 0 0 0 0 0 1 3 6 8 12 25 44 57 63 74 82 78 72 76 83 84 83 80 74 64 52 38 26 18 15 11 9 8 9 10 12 14 12 10
0 0 0 0 0 0 0 0 0 0 0 0 0 0 0 1 4 7 12 19 32 46 57 68 78 84 84 80 81 85 85 84 83 78 70 60 49 36 24 17 13 10 7 6 5 7 8 7 5
0 0 0 0 0 0 0 0 0 0 0 0 0 0 1 3 5 10 18 26 36 45 57 71 82 85 84 81 81 84 85 86 85 81 75 68 57 44 30 19 12 8 6 4 4 6 6 4 3
0 0 0 0 0 0 0 0 0 0 0 0 0 1 2 5 11 17 24 29 37 47 57 71 83 85 82 80 82 85 87 88 87 83 78 72 62 48 33 21 12 7 5 4 5 6 6 4 3
0 0 0 0 0 0 0 0 0 0 0 0 0 2 4 10 19 27 28 29 37 49 58 68 75 76 75 76 80 85 87 88 86 83 80 74 62 46 33 22 13 8 6 6 6 6 5 3 2
0 0 0 0 0 0 0 0 0 0 0 0 1 3 7 15 27 34 31 31 39 48 56 62 61 59 58 61 69 79 85 86 84 81 77 70 55 39 28 22 16 11 7 6 6 6 5 2 1
0 0 0 0 0 0 0 0 0 0 0 0 1 4 9 20 32 37 38 41 43 45 52 56 53 46 39 37 46 60 71 75 73 70 65 54 38 25 18 17 18 13 7 4 5 5 4 1 0
0 0 0 0 0 0 0 0 0 0 0 0 1 4 11 23 34 41 47 53 53 51 54 56 53 43 30 25 30 36 45 50 48 46 43 32 20 12 12 19 23 15 7 5 5 5 3 1 0
0 0 0 0 0 0 0 0 0 0 0 0 1 4 13 23 32 40 47 56 61 61 59 58 55 46 35 33 35 29 26 26 23 24 25 20 14 10 13 23 24 15 7 5 6 5 2 1 0
0 0 0 0 0 0 0 0 0 0 0 0 0 3 10 18 24 31 37 49 61 65 61 58 56 52 47 47 47 38 29 25 23 26 29 27 24 18 15 18 17 10 5 3 5 3 1 1 1
0 0 0 0 0 0 0 0 0 0 0 0 0 2 5 10 14 19 27 43 58 62 58 56 58 60 62 61 58 53 46 40 40 45 46 40 33 24 17 15 11 6 2 2 2 2 2 1 2
0 0 0 0 0 0 0 0 0 0 0 0 1 2 3 6 8 11 23 40 53 56 53 54 60 66 73 75 72 66 60 55 54 57 54 44 35 27 23 21 16 7 4 3 3 3 2 1 1
0 0 0 0 0 0 0 0 0 0 0 0 1 4 7 9 10 12 23 38 49 54 53 53 60 68 77 81 79 71 65 62 60 59 54 45 36 32 29 26 19 12 8 7 6 4 2 0 0
0 0 0 0 0 0 0 0 0 0 0 0 2 7 12 17 18 21 29 40 49 54 55 52 53 59 68 74 73 65 60 61 63 61 55 47 39 37 35 28 20 15 14 14 13 9 5 3 2
0 0 0 0 0 0 0 0 1 1 0 2 5 8 13 19 23 25 31 41 47 51 53 50 44 45 54 63 65 60 57 61 64 62 57 50 43 41 39 31 23 20 21 22 19 12 7 6 5
0 0 0 0 0 0 0 1 2 3 3 5 8 10 11 15 18 19 24 32 39 44 49 48 41 39 46 56 61 62 62 63 63 61 56 52 48 45 42 37 31 27 26 24 19 14 11 9 8
0 0 0 0 0 0 0 1 3 5 6 7 9 10 11 12 12 14 19 24 29 36 45 45 40 41 47 55 60 62 61 60 57 54 51 48 46 44 43 41 36 31 28 24 20 17 14 9 7
0 0 0 0 0 0 0 0 2 5 6 7 8 10 11 9 10 17 23 24 25 30 37 39 38 42 48 54 58 59 56 49 45 43 39 36 35 35 36 35 34 31 29 26 21 17 11 6 6
0 0 0 0 0 0 0 1 2 3 4 6 8 10 10 9 9 17 24 25 26 29 35 38 40 43 48 51 54 55 48 40 34 31 28 25 24 25 26 26 26 26 26 23 19 14 8 5 5
0 0 0 0 0 0 0 1 2 3 3 4 7 9 11 10 9 14 21 25 28 32 37 41 44 45 47 48 50 48 41 34 28 23 19 17 16 17 17 17 17 18 18 16 14 12 9 7 5
0 0 0 0 0 0 0 1 2 3 2 1 3 7 10 10 9 12 19 25 28 31 36 41 44 46 47 47 47 42 36 29 23 16 11 9 8 8 8 8 10 11 11 10 8 7 7 6 4
0 0 0 0 0 0 0 0 1 2 1 0 1 4 7 8 8 11 17 21 25 28 32 36 41 44 45 45 43 37 30 23 15 10 6 5 4 4 3 4 5 6 6 5 4 4 5 5 4
0 0 0 0 0 0 0 0 1 2 2 0 1 3 5 6 8 11 14 16 19 24 28 31 34 37 38 38 36 30 22 15 9 7 5 4 4 4 3 3 4 4 4 3 3 3 4 3 3
0 0 0 0 0 0 0 0 2 6 5 2 1 2 4 6 8 11 13 13 15 18 22 25 25 25 26 27 25 22 16 10 7 6 5 4 4 4 3 3 4 4 4 2 2 2 2 1 1
0 0 0 0 0 0 0 1 4 7 7 4 1 2 3 5 7 9 10 10 11 14 16 17 16 16 16 16 16 13 10 7 6 6 5 2 1 2 2 1 1 2 1 1 0 1 1 0 0
0 0 0 0 0 0 0 1 4 7 7 4 2 2 3 3 4 5 5 6 8 9 9 10 11 11 10 9 8 7 5 4 4 3 2 1 0 0 0 0 0 0 0 0 0 0 0 0 0
0 0 0 0 0 0 0 0 3 7 8 4 1 1 2 2 2 2 2 3 4 5 5 7 8 7 6 5 3 2 2 2 2 1 1 0 0 0 0 0 0 0 0 0 0 0 0 0 0
0 0 0 0 0 0 0 0 2 8 9 5 1 0 1 1 1 0 0 1 2 3 4 5 6 5 3 2 1 0 1 1 1 0 0 0 0 0 0 0 0 0 0 0 0 0 0 0 0
0 0 0 0 0 0 0 0 2 7 10 7 2 1 0 0 0 0 0 0 1 2 3 4 4 4 2 0 0 0 0 0 0 0 0 0 0 0 0 0 0 0 0 0 0 0 0 0 0

GEFSSGP_con_prob3kmehi_084.txt.gz
EHI
0 0 0 0 0 0 0 0 0 0 0 0 0 0 0 2 6 10 12 30 66 88 88 86 82 70 48 23 8 4 2 1 2 2 2 1 0 0 1 1 4 8 9 6 4 2 1 0 0
0 0 0 0 0 0 0 0 0 0 0 0 0 0 1 4 8 13 15 32 63 83 84 85 84 75 59 36 15 6 5 4 4 4 2 1 1 1 2 2 3 6 7 4 3 2 1 0 0
0 0 0 0 0 0 0 0 0 0 0 0 0 0 2 6 11 18 22 34 59 77 83 89 89 83 73 54 29 13 10 9 8 7 6 4 3 3 3 2 2 3 3 2 1 1 1 0 0
0 0 0 0 0 0 0 0 0 0 0 0 0 3 8 11 16 25 26 33 56 76 87 93 93 89 82 69 47 28 21 18 15 14 13 11 8 5 4 2 1 1 1 1 1 0 0 0 0
0 0 0 0 0 0 0 0 0 0 0 0 2 9 17 20 24 29 25 28 53 77 89 94 94 93 88 78 64 51 43 39 33 27 22 18 14 10 6 2 1 1 1 0 0 0 0 0 0
0 0 0 0 0 0 0 0 0 0 0 0 3 13 24 28 30 29 21 24 50 77 90 93 93 92 89 81 74 70 65 59 52 43 32 25 19 13 7 3 2 1 0 0 0 0 0 0 0
0 0 0 0 0 0 0 0 0 0 0 0 2 12 27 37 36 29 20 25 50 76 87 89 88 85 81 76 76 77 73 65 57 47 36 27 19 12 7 4 2 1 0 0 0 0 0 0 0
0 0 0 0 0 0 0 0 0 0 0 0 1 11 30 45 43 33 25 31 52 74 81 79 75 72 66 63 67 72 70 61 50 38 28 21 13 7 4 3 3 1 0 0 0 0 0 0 1
0 0 0 0 0 0 0 0 0 0 0 0 2 12 30 44 43 37 35 41 56 72 73 64 59 57 50 48 55 59 56 48 36 25 18 13 7 3 2 5 7 4 0 0 0 0 0 0 1
0 0 0 0 0 0 0 0 0 0 0 0 2 11 26 39 40 38 41 50 62 71 67 52 44 44 39 42 52 49 38 31 22 14 11 7 3 2 5 13 16 9 1 0 0 0 0 0 1
0 0 0 0 0 0 0 0 0 0 0 0 1 8 20 30 33 35 39 50 63 70 63 48 41 40 39 48 56 45 32 25 18 13 11 5 1 4 14 23 20 10 2 0 0 0 0 0 0
0 0 0 0 0 0 0 0 0 0 0 0 1 6 14 20 24 30 37 47 61 68 61 51 50 49 50 60 59 43 34 31 25 25 23 12 5 8 20 27 20 8 1 0 0 0 1 1 2
0 0 0 0 0 0 0 0 0 0 1 1 2 6 11 16 19 27 38 50 64 71 64 58 61 63 65 70 65 47 41 38 37 41 37 22 13 15 26 32 24 10 5 6 4 3 4 6 6
0 0 0 0 0 0 0 0 0 1 2 3 4 6 11 16 20 29 42 55 68 75 72 68 70 71 73 75 71 58 50 48 49 52 47 31 24 29 37 40 33 19 17 21 18 12 11 11 11
0 0 0 0 0 0 0 0 0 1 3 5 6 8 13 17 22 31 45 58 68 73 75 74 74 73 73 75 74 66 60 59 60 60 54 41 36 43 48 46 39 30 31 37 33 23 19 17 15
0 0 0 0 0 0 0 0 1 2 5 7 7 9 13 17 22 32 46 58 65 69 73 74 74 75 74 74 75 70 67 66 66 65 60 49 43 48 53 51 45 42 42 42 36 29 25 22 20
0 0 0 0 0 0 0 1 3 4 6 8 8 9 12 18 25 34 45 57 64 67 71 72 74 75 74 73 73 71 68 66 64 63 58 50 45 47 53 54 52 51 47 38 30 30 28 23 20
0 0 0 0 0 0 1 2 4 5 7 8 9 11 15 22 29 36 44 53 61 66 68 70 72 73 70 66 63 64 63 59 56 54 52 50 46 46 49 52 54 55 48 34 26 28 26 20 15
0 0 0 0 0 0 1 3 4 4 6 9 11 14 19 25 30 36 41 45 54 61 64 66 66 64 61 56 52 53 51 47 45 45 47 50 49 46 44 46 51 53 46 32 27 26 21 15 12
0 0 0 0 0 0 1 3 4 5 8 13 15 15 19 26 31 34 37 39 45 53 58 60 58 55 52 48 43 41 39 37 34 33 36 41 43 41 38 39 43 44 38 30 27 25 18 11 8
0 0 0 0 0 0 1 3 6 9 13 17 17 16 18 24 28 30 33 36 39 45 50 52 51 50 46 41 36 31 28 26 22 20 22 25 28 29 30 29 30 29 26 23 21 19 15 9 6
0 0 0 0 0 0 0 2 6 12 16 16 15 17 19 21 24 26 29 33 36 40 44 46 47 46 43 39 34 26 21 17 13 12 13 13 15 17 19 18 17 17 16 13 11 11 10 7 5
0 0 0 0 0 0 0 1 5 10 13 13 14 16 18 19 21 25 28 31 33 36 40 41 41 40 40 40 36 27 18 13 9 7 6 7 8 9 11 11 10 10 10 8 6 7 7 6 4
0 0 0 0 0 0 0 0 3 7 10 13 14 14 15 17 20 25 29 31 32 34 37 37 35 32 33 36 34 26 16 10 6 4 2 3 6 7 7 7 7 7 7 6 6 6 7 6 5
0 0 0 0 0 0 0 0 3 8 13 14 12 12 14 16 18 21 25 28 29 31 33 33 30 26 25 27 27 21 13 7 4 3 3 4 6 6 6 6 6 6 5 5 5 5 4 3 3
0 0 0 0 0 0 0 0 3 8 13 13 11 11 14 16 15 15 18 20 22 25 27 28 26 22 19 19 19 15 9 4 2 3 4 5 5 4 4 3 3 3 3 2 3 3 1 1 1
0 0 0 0 0 0 0 0 2 5 8 8 8 10 13 13 11 11 12 13 13 15 17 19 18 16 13 12 11 7 4 2 1 1 3 3 2 1 1 1 1 1 1 0 1 1 0 0 0
0 0 0 0 0 0 0 0 1 2 3 4 6 9 10 9 7 7 8 6 6 7 9 10 11 9 7 4 3 2 1 0 0 0 1 1 0 0 0 0 0 0 0 0 0 0 0 0 0
0 0 0 0 0 0 0 0 1 2 3 5 7 8 8 6 4 3 3 2 1 2 4 5 6 6 4 1 0 0 0 0 0 0 0 0 0 0 0 0 0 0 0 0 0 0 0 0 0
0 0 0 0 0 0 0 1 1 2 5 7 8 8 6 5 3 1 1 0 0 0 2 4 4 4 3 1 0 0 0 0 0 0 0 0 0 0 0 0 0 0 0 0 0 0 0 0 0

GEFSSGP_con_prob3kmehi_090.txt.gz
EHI
0 0 0 0 0 0 0 0 0 0 0 1 3 7 8 6 6 4 4 10 28 45 43 37 35 33 27 20 16 17 18 17 18 19 21 23 25 26 23 18 12 7 3 1 0 1 2 2 1
0 0 0 0 0 0 0 0 0 0 0 1 5 9 10 12 13 10 10 20 40 55 56 48 45 43 35 23 13 12 14 14 14 14 15 16 19 21 19 14 9 5 2 0 0 0 1 1 0
0 0 0 0 0 0 0 0 0 0 0 3 7 10 10 13 16 16 23 40 56 66 67 63 60 56 46 30 16 11 11 11 9 8 8 8 10 12 11 8 5 3 1 0 0 0 0 0 0
0 0 0 0 0 0 0 0 0 0 1 5 10 11 12 16 22 30 46 61 67 69 72 74 72 65 54 40 26 17 12 8 5 4 4 4 4 4 4 3 2 1 1 0 0 0 0 0 0
0 0 0 0 0 0 0 0 0 0 2 8 13 16 20 26 37 52 63 68 69 71 76 82 82 75 63 50 36 25 16 9 4 2 3 3 1 1 1 1 0 0 0 0 0 0 0 0 0
0 0 0 0 0 0 0 0 0 0 2 8 13 18 25 34 45 58 64 65 69 75 81 86 85 79 70 57 45 35 26 17 9 5 3 2 1 0 0 0 0 0 0 0 0 0 0 0 0
0 0 0 0 0 0 0 0 0 0 3 7 12 17 23 29 39 53 64 69 74 80 84 87 84 78 72 63 53 44 37 28 20 12 5 1 0 0 0 0 0 0 0 0 0 0 0 0 0
0 0 0 0 0 0 0 0 0 1 3 7 10 15 20 27 38 56 70 77 79 80 83 85 84 80 76 69 58 49 44 38 30 19 9 2 0 0 0 0 0 0 0 0 0 0 0 0 0
0 0 0 0 0 0 0 0 0 1 3 5 8 15 25 36 48 62 74 79 80 81 83 85 87 86 85 77 64 55 50 46 37 25 13 6 1 0 0 0 0 0 0 0 0 0 0 0 0
0 0 0 0 0 0 0 0 0 1 2 4 10 21 34 47 56 64 71 75 78 81 83 87 89 90 90 85 75 66 60 54 43 31 20 11 4 1 0 0 0 0 0 0 0 0 0 0 0
0 0 0 0 0 0 0 0 0 0 1 4 13 25 38 48 55 60 63 68 75 79 80 81 82 85 86 85 81 74 66 58 46 35 26 15 6 2 1 0 0 0 0 0 0 0 0 0 0
0 0 0 0 0 0 0 0 0 0 1 5 12 23 35 44 49 54 57 63 70 75 73 69 66 66 69 74 75 70 64 55 44 35 27 17 7 2 1 0 1 0 0 0 0 0 0 0 0
0 0 0 0 0 0 0 0 0 1 3 6 12 22 32 39 43 49 56 61 67 70 66 57 50 46 47 54 60 58 53 46 36 29 23 15 7 2 1 1 1 0 0 0 0 0 0 0 0
0 0 0 0 0 0 0 0 0 2 4 7 12 19 27 33 36 43 52 58 61 63 59 48 39 35 35 39 44 44 42 37 28 21 17 12 6 2 2 2 1 0 0 0 0 0 0 0 0
0 0 0 0 0 0 0 0 1 3 6 9 11 16 21 26 30 37 45 50 53 56 53 44 35 31 31 32 35 35 33 29 21 15 13 10 6 3 3 3 1 0 0 0 0 0 0 0 0
0 0 0 0 0 0 0 1 2 5 8 10 12 16 20 24 27 31 39 44 46 49 48 41 34 30 28 29 31 30 25 21 17 14 11 8 5 4 4 3 1 0 0 0 0 0 0 0 0
0 0 0 0 0 0 1 3 5 6 8 11 15 19 23 26 27 29 35 41 41 39 38 34 31 28 27 29 30 25 19 16 13 12 11 8 6 5 5 3 1 0 0 0 0 0 0 0 0
0 0 0 0 0 1 3 5 6 5 6 11 18 22 25 27 29 31 34 36 34 30 28 27 25 25 27 32 32 24 17 13 11 10 9 8 8 7 6 4 1 0 0 0 0 0 0 0 0
0 0 0 0 1 2 4 5 4 4 5 11 19 24 26 28 31 32 31 30 29 25 22 21 20 20 24 29 28 21 16 12 7 5 4 5 6 7 6 5 3 1 0 0 0 0 0 0 0
0 0 0 0 1 2 4 4 4 5 8 12 17 22 25 26 28 26 23 23 23 21 18 16 17 18 21 23 22 18 15 10 5 2 1 1 2 3 4 5 4 2 1 0 0 0 0 0 0
0 0 0 0 0 1 2 3 4 6 9 11 14 18 20 21 21 18 14 12 14 14 13 13 15 18 20 21 19 16 13 8 5 3 2 1 1 1 2 4 4 2 1 0 0 0 0 0 0
0 0 0 0 0 0 1 1 3 5 7 9 10 12 14 15 15 13 10 6 6 8 10 11 13 16 18 18 16 13 10 7 5 3 2 2 2 2 2 3 3 1 0 0 0 0 0 0 0
0 0 0 0 0 0 0 0 1 2 3 4 5 8 10 12 13 12 9 7 7 7 8 9 11 12 12 12 11 9 7 5 4 3 1 1 1 1 2 2 2 1 0 0 0 0 0 0 0
0 0 0 0 0 0 0 0 0 0 1 1 3 5 6 7 9 9 7 7 9 9 8 8 9 8 7 6 6 4 4 3 2 2 1 0 0 0 0 1 1 1 0 0 0 0 0 0 0
0 0 0 0 0 0 0 0 0 0 0 1 2 3 3 3 4 5 5 6 8 9 8 7 6 5 4 3 2 1 2 1 1 1 0 0 0 0 0 0 0 0 0 0 0 0 0 0 0
0 0 0 0 0 0 0 0 0 0 0 0 1 1 1 2 2 2 3 5 6 7 6 5 5 4 2 1 0 0 0 0 0 0 0 0 0 0 0 0 0 0 0 0 0 0 0 0 0
0 0 0 0 0 0 0 0 0 0 0 0 0 1 1 2 2 2 2 3 4 4 4 4 5 4 1 0 0 0 0 0 0 0 0 0 0 0 0 0 0 0 0 0 0 0 0 0 0
0 0 0 0 0 0 0 0 0 0 0 0 0 1 2 3 2 2 2 3 3 3 3 4 4 3 1 0 0 0 0 0 0 0 0 0 0 0 0 0 0 0 0 0 0 0 0 0 0
0 0 0 0 0 0 0 0 0 0 0 0 0 1 1 2 2 2 2 3 3 3 3 3 2 1 0 0 0 0 0 0 0 0 0 0 0 0 0 0 0 0 0 0 0 0 0 0 0
0 0 0 0 0 0 0 0 0 0 0 0 0 0 0 1 1 1 2 3 3 3 2 1 1 0 0 0 0 0 0 0 0 0 0 0 0 0 0 0 0 0 0 0 0 0 0 0 0

GEFSSGP_con_prob3kmehi_096.txt.gz
EHI
0 0 0 0 0 0 0 0 0 0 0 0 0 0 1 1 1 1 4 21 52 73 70 63 65 69 70 73 81 87 91 93 92 92 90 83 73 59 43 30 23 19 13 8 4 3 4 4 3
0 0 0 0 0 0 0 0 0 0 0 0 0 0 1 2 2 2 8 31 62 79 74 64 66 70 71 75 80 83 88 90 90 90 87 81 73 62 49 37 28 22 16 10 6 4 5 3 2
0 0 0 0 0 0 0 0 0 0 0 0 0 0 1 3 3 4 17 46 72 81 77 71 74 76 75 78 79 77 78 81 82 81 79 74 69 64 56 44 32 24 19 13 8 5 4 2 1
0 0 0 0 0 0 0 0 0 0 0 0 0 1 4 6 5 10 30 57 75 80 79 81 85 85 82 80 77 71 67 69 69 66 63 60 57 57 53 42 31 24 18 12 8 4 3 2 1
0 0 0 0 0 0 0 0 0 0 0 0 0 3 9 12 13 21 39 60 74 80 82 85 90 91 87 83 79 72 67 64 60 54 47 44 44 44 41 33 25 18 13 8 5 3 3 3 3
0 0 0 0 0 0 0 0 0 0 0 0 2 8 16 20 24 31 42 56 71 82 85 87 90 90 88 85 83 79 74 67 58 47 37 34 35 33 28 23 17 11 7 4 3 2 3 3 3
0 0 0 0 0 0 0 0 0 0 0 1 4 11 20 29 37 44 50 58 70 81 87 89 88 88 88 87 84 83 79 70 56 42 31 25 25 23 18 13 10 6 3 1 1 1 1 3 3
0 0 0 0 0 0 0 0 0 0 1 3 5 10 21 37 51 61 65 66 69 75 82 86 88 88 90 89 86 83 78 69 55 41 28 18 14 13 10 7 5 3 2 1 0 0 1 2 3
0 0 0 0 0 0 0 0 0 0 2 6 8 13 26 46 63 70 69 66 66 67 73 81 87 90 91 91 88 83 78 68 57 46 34 22 13 9 8 5 2 1 1 0 0 0 0 1 2
0 0 0 0 0 0 0 0 0 0 3 7 11 19 37 57 68 68 64 59 58 60 67 77 84 87 89 90 88 85 80 71 62 55 47 34 22 15 11 6 3 2 0 0 0 0 0 0 1
0 0 0 0 0 0 0 0 0 1 2 6 12 25 45 60 65 62 57 52 50 53 63 71 76 79 81 84 86 85 82 75 67 62 56 44 32 23 16 9 6 4 1 0 0 0 1 0 0
0 0 0 0 0 0 0 0 1 2 3 7 16 30 44 52 54 52 49 48 48 53 60 64 68 71 75 77 78 79 78 74 69 65 61 52 39 28 18 10 6 5 2 1 0 0 0 0 0
0 0 0 0 0 0 0 0 1 3 5 11 20 30 36 39 41 43 44 47 50 55 59 61 62 66 69 69 68 69 69 68 65 62 61 55 43 29 18 10 5 4 3 2 1 1 1 0 0
0 0 0 0 0 0 0 0 1 3 7 12 19 24 26 28 32 38 43 47 49 53 58 60 60 61 61 60 60 61 60 58 57 55 53 51 42 29 17 10 5 4 4 3 2 2 2 1 0
0 0 0 0 0 0 0 0 1 3 7 11 15 17 19 21 24 30 37 41 43 48 53 55 55 53 51 50 50 51 51 50 48 46 43 43 38 26 16 10 6 4 4 3 2 3 2 1 0
0 0 0 0 0 0 0 0 1 3 6 10 12 14 15 16 16 18 22 28 34 41 45 46 44 43 41 41 40 41 43 43 40 37 36 35 31 23 15 10 7 4 3 3 3 2 1 0 0
0 0 0 0 0 0 0 0 1 3 5 8 10 12 15 15 13 11 13 18 26 32 35 36 34 31 30 30 30 30 32 33 31 27 27 25 23 19 15 11 8 5 3 2 2 2 1 0 0
0 0 0 0 0 0 0 0 1 3 4 6 9 13 15 14 10 9 11 16 21 25 27 28 25 21 20 23 23 21 20 21 20 18 16 14 13 13 11 8 6 5 3 2 1 1 0 0 0
0 0 0 0 0 0 0 0 1 2 3 4 8 11 12 9 6 5 8 13 17 19 19 19 17 14 15 20 21 17 14 13 12 10 7 6 5 6 6 4 3 3 2 1 0 0 0 0 0
0 0 0 0 0 0 0 0 0 1 1 2 4 6 6 5 3 2 3 6 9 11 12 11 10 10 11 14 16 14 10 9 9 7 3 2 1 1 2 2 1 1 1 0 0 0 0 0 0
0 0 0 0 0 0 0 0 0 0 0 0 1 1 2 2 2 2 1 2 3 5 6 6 5 5 6 7 8 9 7 6 5 4 2 1 0 0 1 1 0 0 0 0 0 0 0 0 0
0 0 0 0 0 0 0 0 0 0 0 0 0 0 0 0 1 2 2 1 1 2 4 4 3 2 3 4 6 7 7 5 4 3 2 0 0 0 0 0 0 0 0 0 0 0 0 0 0
0 0 0 0 0 0 0 0 0 0 0 0 0 0 0 1 1 1 2 1 0 1 3 4 4 3 2 2 4 6 6 5 4 2 1 0 0 0 0 0 1 1 0 0 0 1 0 0 0
0 0 0 0 0 0 0 0 0 0 0 0 0 0 0 1 0 1 2 2 1 1 2 4 5 4 2 1 2 4 5 4 3 1 1 0 0 0 0 0 1 1 0 0 0 0 0 0 0
0 0 0 0 0 0 0 0 0 0 0 0 0 0 0 0 0 0 1 2 1 1 1 2 4 4 1 0 1 2 3 3 2 1 1 1 0 0 0 0 0 0 0 0 0 0 0 0 0
0 0 0 0 0 0 0 0 0 0 0 0 0 0 0 0 0 0 0 1 1 0 0 1 2 2 1 0 0 1 1 2 2 1 1 1 0 0 0 0 0 0 0 0 0 0 0 0 0
0 0 0 0 0 0 0 0 0 0 0 0 0 0 0 0 0 0 0 0 0 0 0 1 2 2 2 1 0 0 0 1 1 0 0 0 0 0 0 0 0 0 0 0 0 0 0 0 0
0 0 0 0 0 0 0 0 0 0 0 0 0 0 0 0 0 0 1 1 1 0 0 1 2 3 3 2 0 0 0 0 0 0 0 0 0 0 0 0 0 0 0 0 0 0 0 0 0
0 0 0 0 0 0 0 0 0 0 0 0 0 0 0 0 0 0 1 1 1 0 1 1 3 3 2 1 0 0 0 0 0 0 0 0 0 0 0 0 0 0 0 0 0 0 0 0 0
0 0 0 0 0 0 0 0 0 0 0 0 0 0 0 0 0 0 0 1 0 1 2 2 3 3 1 0 0 0 0 0 0 0 0 0 0 0 0 0 0 0 0 0 0 0 0 0 0

GEFSSGP_con_prob3kmehi_102.txt.gz
EHI
0 0 0 0 0 0 0 0 0 0 0 0 0 0 0 0 0 0 7 23 42 52 50 44 45 50 60 73 82 84 85 83 76 69 64 55 43 32 23 17 15 14 10 6 5 5 6 6 4
0 0 0 0 0 0 0 0 0 0 0 0 0 0 0 1 1 1 10 27 42 46 43 42 46 55 66 77 85 88 89 88 83 78 75 68 57 45 33 24 21 18 13 8 6 6 7 7 5
0 0 0 0 0 0 0 0 0 0 0 0 0 1 2 4 6 6 17 33 39 35 35 42 51 61 72 82 88 92 94 94 92 89 87 82 73 60 45 33 27 24 18 11 7 8 10 8 6
0 0 0 0 0 0 0 0 0 0 0 0 1 3 7 12 13 14 25 35 32 26 30 43 55 64 73 83 88 91 94 96 96 94 91 88 82 70 53 38 31 27 22 14 8 8 10 9 7
0 0 0 0 0 0 0 0 0 0 0 1 3 7 15 20 20 23 30 30 24 20 28 42 54 62 70 78 85 89 91 94 95 93 91 89 86 75 60 45 35 30 25 18 10 7 8 7 6
0 0 0 0 0 0 0 0 0 0 1 2 4 11 21 27 29 31 31 26 19 18 26 37 42 46 56 65 74 82 86 88 91 92 90 86 82 75 64 54 44 34 27 21 12 6 6 6 6
0 0 0 0 0 0 0 0 0 0 1 3 5 12 25 37 44 43 35 26 18 16 22 25 23 24 32 42 54 66 73 77 84 87 83 77 72 65 59 54 46 36 27 21 13 7 6 5 5
0 0 0 0 0 0 0 0 0 1 4 7 11 18 32 48 59 57 47 36 26 20 19 19 15 12 14 21 34 47 56 62 69 72 69 61 51 42 37 38 38 33 24 17 12 9 8 5 3
0 0 0 0 0 0 0 0 1 4 8 14 22 32 42 53 63 65 57 48 41 34 27 24 20 16 13 17 25 32 37 42 43 47 48 38 24 18 18 28 37 30 21 16 13 12 9 4 1
0 0 0 0 0 0 0 0 2 6 12 17 27 40 47 50 56 59 56 52 52 48 39 33 31 26 22 26 32 30 30 30 26 29 33 26 17 12 16 34 40 30 20 15 13 11 6 2 0
0 0 0 0 0 0 0 1 3 9 14 16 22 35 43 45 45 45 45 48 53 54 46 40 41 37 32 38 44 41 42 43 39 41 44 41 35 26 26 36 37 27 19 14 12 8 3 0 0
0 0 0 0 0 0 0 1 5 10 13 12 15 24 34 36 33 32 34 41 47 48 44 42 45 46 44 46 52 54 57 62 64 67 68 62 54 42 36 38 36 29 22 20 17 10 4 1 1
0 0 0 0 0 0 0 1 5 9 10 9 11 16 24 27 26 26 28 33 38 38 37 37 43 50 53 53 56 57 60 64 70 75 75 69 61 54 49 48 46 38 32 30 25 18 12 8 5
0 0 0 0 0 0 0 1 4 6 7 8 11 15 20 23 24 25 27 30 32 32 33 36 40 47 53 54 54 54 55 59 62 66 67 63 62 61 60 59 55 48 41 38 34 28 24 20 16
0 0 0 0 0 0 0 1 3 5 7 8 11 15 19 22 25 27 30 31 30 31 34 37 37 42 48 49 48 46 48 52 55 55 55 56 58 62 64 63 60 55 49 46 44 39 37 34 29
0 0 0 0 0 0 0 1 4 6 8 8 9 12 18 21 24 27 29 29 29 31 35 37 37 40 47 49 47 43 43 47 49 49 50 53 54 57 60 60 60 58 54 54 53 51 50 45 38
0 0 0 0 0 0 0 1 3 6 6 6 7 11 15 19 21 21 23 24 26 30 36 38 38 41 48 52 49 45 44 45 46 47 50 53 52 51 53 54 54 52 52 54 54 54 54 47 40
0 0 0 0 0 0 0 1 2 4 5 7 10 11 12 15 16 16 18 21 23 25 32 36 37 42 49 52 50 46 44 44 45 47 50 50 47 45 46 48 47 43 43 44 45 47 47 41 36
0 0 0 0 0 0 0 0 1 3 6 10 13 12 12 13 16 19 20 21 21 20 24 28 32 39 47 52 50 45 42 43 43 45 47 45 40 38 41 43 43 40 38 38 38 39 38 36 34
0 0 0 0 0 0 0 0 0 2 5 9 10 10 11 13 17 20 21 21 20 19 19 21 23 30 40 47 47 43 41 40 39 38 39 37 33 33 36 39 39 37 36 34 34 34 34 33 33
0 0 0 0 0 0 0 0 0 1 3 4 5 5 7 10 14 15 16 17 18 18 17 17 19 22 29 35 37 37 36 33 30 29 28 26 26 27 29 31 32 31 30 29 28 27 28 29 28
0 0 0 0 0 0 0 0 1 1 2 2 3 4 5 7 9 10 11 12 12 13 13 16 18 18 20 24 26 28 28 24 23 24 23 20 19 18 19 22 25 26 24 22 20 18 19 21 19
0 0 0 0 0 0 0 0 1 1 2 2 3 3 4 5 7 8 9 9 9 9 11 14 16 16 17 18 21 24 24 20 19 22 22 18 14 12 11 13 18 20 18 16 14 13 12 13 12
0 0 0 0 0 0 0 0 0 1 2 2 2 2 2 3 4 5 6 8 8 7 8 10 11 12 14 15 18 23 22 19 19 20 18 14 11 9 7 7 10 12 11 10 8 8 7 7 8
0 0 0 0 0 0 0 0 0 1 1 1 1 1 1 0 1 1 3 5 6 5 5 5 6 7 10 11 13 16 16 15 16 15 11 8 8 7 6 6 6 6 6 5 5 4 4 4 5
0 0 0 0 0 0 0 0 0 0 0 1 1 1 0 0 0 0 1 3 4 4 3 2 3 4 5 6 7 8 7 8 10 9 6 5 5 5 5 5 4 3 3 3 2 3 3 3 3
0 0 0 0 0 0 0 0 0 0 0 1 1 0 0 0 0 0 0 1 2 3 2 2 3 3 3 3 4 4 3 4 4 4 4 4 4 4 3 3 3 3 3 2 2 2 3 2 1
0 0 0 0 0 0 0 0 0 0 1 1 1 0 0 0 0 0 0 0 1 2 1 2 4 4 3 3 3 2 1 1 1 2 3 4 4 3 2 2 2 3 3 3 2 3 3 2 1
0 0 0 0 0 0 0 0 1 0 1 1 1 1 1 1 0 0 0 0 1 2 2 2 3 3 3 3 2 1 0 0 0 1 1 3 3 1 1 1 1 2 3 3 3 3 3 2 2
0 0 0 0 0 0 0 0 1 0 0 1 0 1 2 1 0 0 0 0 1 2 2 2 3 3 3 2 1 0 0 0 0 0 0 1 1 0 0 0 0 1 2 3 3 2 2 2 1

GEFSSGP_con_prob3kmehi_108.txt.gz
EHI
0 0 0 0 0 0 0 0 0 0 0 0 0 1 3 4 3 2 14 45 69 67 56 51 45 30 13 6 4 2 1 1 1 1 0 0 0 0 1 2 3 3 4 4 3 2 2 3 3
0 0 0 0 0 0 0 0 0 0 0 0 0 2 6 9 8 7 20 47 60 53 45 46 44 31 16 10 7 5 3 3 3 3 1 0 0 1 1 1 2 3 5 5 5 4 4 4 4
0 0 0 0 0 0 0 0 0 0 0 0 2 8 15 17 16 17 28 44 45 35 35 44 43 31 20 15 12 10 9 8 9 9 5 2 2 3 3 1 2 4 6 6 6 6 6 4 3
0 0 0 0 0 0 0 0 0 0 0 1 7 19 30 29 25 24 28 34 32 28 34 42 43 32 21 17 16 16 15 16 17 16 12 7 7 8 6 4 4 5 6 7 7 6 6 4 2
0 0 0 0 0 0 0 0 0 0 0 2 12 30 44 42 32 25 23 27 30 34 36 39 43 36 23 17 18 20 22 25 25 24 19 16 15 14 11 10 9 8 7 7 7 6 4 3 1
0 0 0 0 0 0 0 0 0 0 0 3 13 33 48 46 35 23 19 24 36 42 38 36 40 37 27 21 21 24 29 34 36 32 26 23 22 19 16 15 15 13 10 7 6 5 4 3 2
0 0 0 0 0 0 0 0 0 0 1 4 13 32 49 48 35 23 18 26 39 44 36 28 29 29 25 22 25 30 36 41 43 37 30 25 22 18 15 15 16 14 9 6 5 4 3 3 3
0 0 0 0 0 0 0 0 0 1 4 8 17 35 53 53 39 27 24 31 41 42 30 20 18 17 13 14 22 31 37 41 41 33 25 21 16 11 8 10 14 12 6 4 4 3 3 3 2
0 0 0 0 0 0 0 0 1 3 7 14 23 37 51 51 40 33 33 40 47 43 29 18 15 12 6 8 17 23 26 29 28 21 16 12 7 4 4 12 21 17 7 4 3 3 2 1 1
0 0 0 0 0 0 1 1 3 6 10 16 24 35 44 45 39 36 40 46 50 44 31 23 20 16 12 16 19 14 12 16 14 14 14 9 4 5 12 28 38 29 14 7 5 3 1 0 0
0 0 0 0 0 0 2 4 7 10 13 16 23 33 41 42 38 36 40 45 46 39 31 28 27 25 25 29 26 14 13 17 14 17 22 14 8 12 25 43 47 35 20 11 8 5 2 1 0
0 0 0 0 0 0 3 8 12 14 14 17 22 31 37 38 37 36 39 43 43 38 32 30 33 35 40 44 36 25 25 29 27 32 36 26 17 20 33 47 46 33 19 12 10 8 4 2 1
0 0 0 0 0 1 4 9 12 13 14 17 22 26 29 30 32 36 42 47 48 45 41 41 46 51 57 60 51 39 40 42 43 48 48 37 27 26 36 48 46 32 21 16 13 10 9 9 8
0 0 0 0 0 1 3 6 9 10 13 18 21 23 24 24 28 34 40 46 50 51 52 56 61 66 71 71 63 52 51 53 54 58 56 45 36 37 44 51 47 34 27 26 23 18 19 21 20
0 0 0 0 0 0 1 4 7 9 13 19 21 21 23 24 26 28 32 38 44 49 55 61 66 71 74 71 63 56 56 60 62 63 61 52 46 49 52 53 50 41 37 39 37 31 30 32 32
0 0 0 0 0 0 1 4 7 9 12 18 20 21 23 24 25 25 27 34 41 47 54 58 62 67 68 64 58 55 59 65 67 67 64 58 53 54 54 53 53 52 51 49 44 41 39 40 40
0 0 0 0 0 0 1 4 7 8 10 15 19 21 23 25 26 27 30 35 41 47 52 54 57 61 62 59 57 56 60 65 67 66 64 61 57 56 55 54 54 58 60 55 49 46 45 43 41
0 0 0 0 0 0 1 4 7 8 9 14 19 22 25 28 29 29 32 36 40 45 50 53 55 57 58 58 59 60 60 62 63 64 63 63 61 58 55 54 54 57 58 55 51 50 47 41 36
0 0 0 0 0 0 1 3 6 8 10 16 22 25 25 26 25 25 27 31 36 42 46 50 52 54 56 58 61 62 61 60 59 59 60 61 59 55 53 53 54 55 53 50 49 49 46 37 31
0 0 0 0 0 0 0 2 6 9 13 18 23 25 23 20 18 17 17 20 27 35 41 45 49 52 56 58 60 61 60 58 54 55 57 57 53 49 49 52 53 52 49 45 44 43 39 32 26
0 0 0 0 0 0 0 2 7 13 16 18 20 22 22 19 16 15 14 15 18 24 31 39 45 50 52 54 55 56 56 55 53 53 54 52 48 44 45 47 47 47 44 40 37 34 30 24 20
0 0 0 0 0 0 0 2 8 15 17 15 15 18 22 22 19 16 16 16 16 16 21 29 36 41 43 45 47 50 51 51 51 50 50 48 44 42 41 40 41 43 41 36 30 27 24 18 14
0 0 0 0 0 0 0 2 7 12 14 14 15 20 25 23 18 15 15 15 13 13 16 22 26 30 33 34 37 42 45 45 42 42 44 44 42 40 38 38 38 38 37 32 27 25 23 18 14
0 0 0 0 0 0 0 1 4 7 10 14 19 25 26 19 12 12 13 12 10 9 13 16 19 22 24 25 28 33 37 37 35 35 38 40 39 38 36 34 33 31 28 26 24 22 21 18 15
0 0 0 0 0 0 0 1 3 5 10 17 24 27 22 13 9 10 12 11 8 7 9 11 12 15 18 20 24 27 30 31 31 32 34 34 33 32 30 27 24 21 18 17 17 17 17 15 14
0 0 0 0 0 0 0 1 4 9 15 22 28 28 18 10 8 8 8 8 7 7 9 10 10 12 15 18 21 24 25 26 27 27 27 25 23 21 20 17 15 13 11 10 11 11 11 10 9
0 0 0 0 0 0 0 1 5 13 19 24 27 24 15 9 7 6 4 4 4 6 9 10 10 9 11 14 15 18 19 19 19 18 15 13 12 11 10 9 8 7 6 5 5 5 5 5 4
0 0 0 0 0 0 0 0 4 11 15 18 20 18 12 8 6 4 2 2 2 3 5 6 6 6 7 9 9 9 10 11 10 8 6 5 5 6 6 4 3 3 3 2 2 2 2 2 1
0 0 0 0 0 0 0 0 3 6 9 13 16 15 12 8 5 3 3 2 2 2 2 2 2 3 4 6 5 5 4 4 3 2 1 1 3 4 3 1 0 1 1 0 0 1 1 1 0
0 0 0 0 0 0 0 1 2 4 8 11 15 16 12 7 4 3 3 3 2 2 1 1 1 2 3 5 5 4 3 2 1 0 0 0 1 2 1 0 0 0 0 0 0 0 0 0 0

GEFSSGP_con_prob3kmehi_114.txt.gz
EHI
0 0 0 0 0 0 0 0 0 0 2 5 11 19 26 23 16 10 5 18 49 65 56 48 50 50 42 32 23 16 13 12 11 12 14 16 16 14 15 15 11 5 1 0 0 0 0 1 1
0 0 0 0 0 0 0 0 0 1 3 9 17 27 32 31 27 18 11 27 58 70 60 52 53 54 45 32 22 15 10 8 8 9 10 10 10 9 10 10 8 4 1 1 1 1 0 0 1
0 0 0 0 0 0 0 0 0 2 6 15 27 36 36 32 27 21 23 45 69 74 64 57 59 60 50 34 21 12 6 4 5 6 5 4 3 4 4 4 3 2 1 1 2 1 0 0 0
0 0 0 0 0 0 0 0 0 3 11 23 38 47 43 33 28 30 41 59 73 74 65 63 66 65 55 38 23 13 6 2 2 3 2 1 1 1 1 1 1 1 0 1 2 1 0 0 0
0 0 0 0 0 0 0 1 1 4 13 29 47 57 53 46 45 48 52 60 69 71 65 65 69 67 59 43 27 16 8 2 1 1 0 0 0 0 0 0 0 0 0 0 0 0 0 0 0
0 0 0 0 0 0 1 2 3 6 14 28 47 57 56 54 54 51 49 55 62 65 62 61 61 60 57 45 30 19 10 4 1 1 1 1 0 0 0 0 0 0 0 0 0 0 0 0 0
0 0 0 0 0 0 1 3 5 8 14 25 41 51 51 49 48 47 49 55 60 60 59 56 51 48 48 42 30 21 13 6 3 2 3 2 1 0 0 0 0 0 0 0 0 0 0 0 0
0 0 0 0 0 1 2 4 6 11 17 25 35 44 46 45 48 54 55 56 56 56 56 53 47 44 42 35 26 20 14 7 3 2 2 1 0 0 0 0 0 1 0 0 0 0 0 0 0
0 0 0 0 0 1 3 4 7 14 23 31 36 43 45 46 52 59 57 52 49 50 50 49 48 46 40 31 23 16 11 6 2 2 1 1 1 1 0 1 1 1 0 0 0 0 0 0 0
0 0 0 0 0 1 2 6 9 16 25 32 38 44 46 46 49 51 48 45 44 42 39 39 42 43 37 30 23 16 9 5 3 3 3 2 2 1 1 1 1 1 1 0 0 0 0 0 0
0 0 0 0 0 0 2 6 10 14 19 25 33 40 42 41 40 39 37 37 37 32 26 26 29 31 30 28 24 17 10 5 4 4 4 4 2 1 1 1 3 3 3 2 1 0 0 0 0
0 0 0 0 0 1 3 6 9 12 14 20 29 36 38 36 33 32 30 28 27 23 16 14 14 16 19 22 19 13 7 4 3 4 5 4 2 1 2 4 6 7 7 5 3 1 0 0 0
0 0 0 0 0 3 6 7 7 9 13 21 29 34 35 32 29 27 25 23 19 14 10 9 9 9 12 14 11 6 3 2 2 3 4 5 2 2 6 8 9 9 9 7 4 2 1 0 0
0 0 0 0 1 4 7 7 6 7 12 21 27 30 29 27 26 24 21 18 14 9 6 7 9 10 13 13 10 6 4 3 3 3 5 5 4 4 8 11 10 9 7 5 5 3 1 0 0
0 0 0 0 1 3 5 6 6 7 12 18 22 23 23 24 24 20 17 15 12 10 9 9 10 13 17 16 15 12 10 8 7 6 6 7 7 7 10 11 10 7 5 4 4 3 1 0 0
0 0 0 0 0 2 3 5 8 12 16 18 18 19 22 23 20 14 11 11 12 12 13 13 13 16 18 19 19 18 15 13 12 11 11 12 11 11 13 12 8 6 5 3 2 1 1 0 0
0 0 0 0 0 1 3 7 11 16 20 20 18 19 22 22 16 10 8 9 11 13 14 15 15 17 19 21 23 24 22 19 18 18 17 16 16 14 13 13 9 7 6 3 1 1 1 0 0
0 0 0 0 0 1 5 9 15 22 24 22 20 20 22 19 13 9 8 9 12 13 14 14 14 16 20 23 26 29 27 24 22 22 20 19 17 14 14 14 12 9 7 5 2 1 1 0 1
0 0 0 0 0 2 6 10 18 25 25 24 24 23 19 15 11 9 9 11 14 14 13 13 12 13 18 23 27 28 26 23 22 21 19 17 16 15 15 14 13 11 9 7 5 2 2 2 2
0 0 0 0 1 3 7 11 18 22 24 26 26 22 16 12 9 8 8 11 13 12 11 11 10 10 13 19 22 23 22 21 20 18 15 13 15 17 16 14 12 10 10 9 7 5 4 5 5
0 0 0 0 1 3 6 10 17 22 24 26 24 19 14 10 8 7 6 7 8 6 6 7 7 7 9 12 15 16 18 17 16 14 11 10 14 18 17 14 11 9 9 7 6 6 6 7 7
0 0 0 0 0 1 2 6 13 21 26 26 22 18 14 10 8 6 4 3 3 3 2 3 4 4 5 6 8 10 13 12 11 9 6 7 11 14 14 11 8 6 6 4 4 4 6 6 7
0 0 0 0 0 0 0 2 7 16 25 27 24 20 16 11 9 7 4 3 2 2 2 3 3 3 2 2 3 6 7 7 6 5 4 4 6 8 9 6 4 2 2 1 1 2 3 3 4
0 0 0 0 0 0 0 0 3 10 20 25 25 20 15 11 9 7 4 3 2 2 2 2 2 2 2 1 2 3 3 3 3 2 2 2 3 5 5 3 1 0 0 0 0 0 1 1 1
0 0 0 0 0 0 0 0 1 5 13 21 22 17 12 8 6 4 2 1 1 1 1 1 1 1 2 2 2 1 1 1 1 1 1 1 2 3 2 1 0 0 0 0 0 0 0 0 0
0 0 0 0 0 0 0 0 1 3 9 15 17 13 7 4 2 1 0 0 0 0 0 0 0 0 1 2 2 1 0 0 0 0 0 0 1 1 0 0 0 0 0 0 0 0 0 0 0
0 0 0 0 0 0 0 0 1 4 7 10 11 8 3 1 0 0 0 0 0 0 0 0 0 0 1 2 2 1 0 0 0 0 0 0 0 0 0 0 0 0 0 0 0 0 0 0 0
0 0 0 0 0 0 0 0 1 3 4 5 5 3 1 0 0 0 0 0 0 0 0 0 0 0 1 3 2 1 0 0 0 0 0 0 0 0 0 0 0 0 0 0 0 0 0 0 0
0 0 0 0 0 0 0 0 0 1 1 1 1 1 0 0 0 0 0 0 0 0 0 0 0 1 2 3 2 1 1 0 0 0 0 0 0 0 0 0 0 0 0 0 0 0 0 0 0
0 0 0 0 0 0 0 0 0 0 0 0 0 0 0 0 0 0 0 0 0 0 0 0 1 2 3 3 2 1 1 0 0 0 0 0 0 0 0 0 0 0 0 0 0 0 0 0 0

GEFSSGP_con_prob3kmehi_120.txt.gz
EHI
0 0 0 0 0 0 0 0 0 0 1 3 7 10 12 9 6 4 5 15 33 41 33 28 34 45 55 63 73 82 83 81 79 77 71 59 43 26 13 8 7 4 2 0 0 0 0 0 0
0 0 0 0 0 0 0 0 0 1 2 6 12 18 18 15 13 10 10 20 40 48 38 34 41 49 56 63 68 73 75 74 73 71 67 57 44 29 18 12 7 5 2 1 0 0 0 0 0
0 0 0 0 0 0 0 0 1 2 4 9 15 19 20 20 20 18 18 30 48 54 45 43 51 56 58 61 62 61 62 63 62 61 57 49 41 34 25 16 10 6 4 2 2 1 0 0 0
0 0 0 0 0 0 0 0 1 2 5 9 15 20 22 23 22 22 27 39 53 56 50 50 59 63 61 60 57 53 52 52 51 48 43 38 34 31 25 17 12 9 6 5 6 5 3 1 1
0 0 0 0 0 0 1 2 2 2 4 10 18 25 26 25 25 30 37 47 58 61 56 56 64 69 66 60 54 48 44 41 38 35 31 29 27 24 21 16 12 10 8 9 10 9 7 5 4
0 0 0 0 0 0 1 2 2 2 4 10 20 29 29 27 32 39 43 52 63 67 66 66 68 70 68 61 52 45 39 34 29 25 23 21 18 16 16 13 8 6 6 8 10 10 10 9 7
0 0 0 0 0 0 1 1 2 4 8 13 21 28 31 33 37 43 49 56 63 67 71 73 71 70 68 61 50 42 36 29 22 17 15 12 9 8 9 9 5 2 2 4 6 8 9 9 8
0 0 0 0 0 0 0 0 2 5 10 17 22 26 33 39 44 49 55 58 59 61 66 69 71 71 70 63 50 39 30 23 15 11 8 6 4 3 3 3 2 1 0 1 2 4 6 7 7
0 0 0 0 0 0 0 0 1 5 10 17 22 27 36 46 50 52 55 55 53 53 55 59 63 67 68 62 50 38 28 20 14 9 7 5 3 1 1 0 0 0 0 1 1 2 3 3 4
0 0 0 0 0 0 0 0 1 4 7 12 19 31 43 48 47 45 47 47 46 45 44 46 51 56 58 55 46 39 31 22 16 11 9 6 2 1 1 0 0 1 1 1 2 1 1 2 2
0 0 0 0 0 0 0 0 1 4 5 7 18 34 43 43 39 37 37 38 39 39 37 36 41 46 47 44 41 37 30 22 15 12 9 4 1 0 1 1 1 2 2 2 2 1 2 2 1
0 0 0 0 0 0 0 1 2 4 5 9 22 35 38 36 32 30 28 29 31 33 31 31 33 35 35 34 35 32 25 16 10 8 6 2 0 0 0 1 2 2 2 3 3 3 3 2 1
0 0 0 0 0 1 2 3 4 5 8 16 26 32 32 30 28 24 21 20 22 23 23 24 24 23 23 25 25 23 18 11 7 6 3 1 0 0 0 1 2 2 2 2 4 4 4 3 2
0 0 0 0 0 2 3 4 5 7 14 22 26 26 25 25 23 20 17 15 13 13 14 15 15 14 14 15 16 15 12 8 6 4 2 1 1 1 1 1 2 2 1 2 3 4 4 4 4
0 0 0 0 0 1 2 3 4 9 17 23 22 19 19 20 19 16 15 13 11 9 9 9 8 7 7 8 8 7 7 6 4 2 1 2 2 2 1 1 1 2 1 2 3 3 3 4 4
0 0 0 0 0 0 0 2 4 9 15 17 15 14 15 16 14 12 11 10 10 9 6 5 4 4 5 6 5 3 3 3 2 1 1 2 2 1 1 0 1 2 1 1 2 2 3 3 3
0 0 0 0 0 0 1 3 6 9 12 11 10 11 13 12 10 9 6 5 6 6 4 2 2 3 5 6 5 3 1 1 1 1 1 2 1 1 1 1 1 1 1 0 1 1 1 2 2
0 0 0 0 0 0 2 4 7 10 11 10 10 10 10 9 7 5 3 2 2 2 2 2 2 3 4 4 4 4 2 2 2 3 3 2 1 1 1 1 1 0 0 0 0 0 0 1 1
0 0 0 0 0 1 2 5 7 9 10 10 11 11 10 8 5 2 1 0 0 0 1 1 1 1 2 2 3 3 3 2 2 3 2 2 1 1 1 1 1 0 0 0 0 0 0 0 0
0 0 0 0 0 1 3 5 7 7 8 10 11 11 10 7 5 2 0 0 0 0 0 0 0 0 1 1 1 1 1 1 1 1 1 1 2 3 2 1 1 0 0 0 0 0 0 0 0
0 0 0 0 0 1 2 4 7 7 7 8 10 10 9 8 7 4 1 0 0 0 0 0 0 0 0 0 0 0 0 0 0 0 0 0 1 2 2 1 1 0 0 0 0 0 0 1 1
0 0 0 0 0 0 1 2 4 6 6 6 8 9 9 8 7 5 2 0 0 0 0 0 0 0 0 0 0 0 0 0 0 0 0 0 0 1 1 1 0 0 0 0 0 0 0 1 2
0 0 0 0 0 0 0 0 2 3 3 3 5 7 8 8 7 4 1 0 0 0 0 0 0 0 0 0 0 0 0 0 0 0 0 0 0 0 0 0 0 0 0 0 0 0 0 1 1
0 0 0 0 0 0 0 0 0 0 0 1 5 8 9 8 6 4 1 0 0 0 0 0 0 0 0 0 0 0 0 0 0 0 0 0 0 0 0 0 0 0 0 0 0 0 0 0 0
0 0 0 0 0 0 0 0 0 0 0 2 6 11 11 7 3 1 0 0 0 0 0 0 0 0 0 0 0 0 0 0 0 0 0 0 0 0 0 0 0 0 0 0 0 0 0 0 0
0 0 0 0 0 0 0 0 0 0 0 2 7 11 10 4 1 0 0 0 0 0 0 0 0 0 0 0 0 0 0 0 0 0 0 0 0 0 0 0 0 0 0 0 0 0 0 0 0
0 0 0 0 0 0 0 0 0 0 1 3 6 8 6 3 0 0 0 0 0 0 0 0 0 0 0 0 0 0 0 0 0 0 0 0 0 0 0 0 0 0 0 0 0 0 0 0 0
0 0 0 0 0 0 0 0 0 0 1 3 4 4 2 1 0 0 0 0 0 0 0 0 0 0 0 0 0 0 0 0 0 0 0 0 0 0 0 0 0 0 0 0 0 0 0 0 0
0 0 0 0 0 0 0 0 0 0 1 2 2 1 0 0 0 0 0 0 0 0 0 0 0 0 0 0 0 0 0 0 0 0 0 0 0 0 0 0 0 0 0 0 0 0 0 0 0
0 0 0 0 0 0 0 0 0 0 0 1 1 0 0 0 0 0 0 0 0 0 0 0 0 0 0 0 0 0 0 0 0 0 0 0 0 0 0 0 0 0 0 0 0 0 0 0 0

GEFSSGP_con_prob3kmehi_126.txt.gz
EHI
0 0 0 0 0 0 0 0 0 0 0 0 1 3 6 7 3 2 4 7 15 20 15 8 9 21 41 64 80 85 81 74 64 49 33 20 12 8 8 8 5 2 0 0 0 0 0 0 0
0 0 0 0 0 0 0 0 0 1 1 1 3 5 8 8 4 4 8 12 17 19 15 11 14 26 43 63 79 84 81 75 67 54 38 22 12 9 10 10 7 3 1 0 0 0 0 0 0
0 0 0 0 0 0 0 0 0 1 2 4 6 8 10 9 6 8 13 17 18 17 17 18 22 30 43 60 74 80 79 75 68 58 41 25 15 12 13 13 9 5 1 0 1 1 1 1 1
0 0 0 0 0 0 0 0 0 1 4 5 7 10 12 11 9 12 18 21 20 18 19 23 28 33 42 55 66 72 74 72 66 56 40 26 18 15 15 15 12 8 4 2 1 2 2 1 0
0 0 0 0 0 0 0 0 0 2 5 6 7 12 16 15 14 16 19 21 22 21 21 24 27 33 42 49 55 62 67 68 63 52 38 27 21 18 17 16 13 10 8 5 3 2 2 1 0
0 0 0 0 0 0 0 1 2 3 6 7 8 14 18 18 20 21 19 19 21 24 26 28 26 28 36 42 45 52 60 62 58 48 36 28 23 19 17 15 13 11 10 8 4 1 1 0 0
0 0 0 0 0 0 1 2 4 5 6 8 9 13 18 25 30 29 25 23 23 26 33 34 27 23 29 34 38 44 52 54 52 44 34 27 22 16 12 11 11 11 11 8 4 1 1 0 0
0 0 0 0 1 1 1 3 6 6 8 11 12 14 23 36 44 42 38 34 31 30 35 37 30 23 23 27 32 38 43 45 44 39 29 21 15 9 5 6 9 10 8 6 4 3 2 1 1
0 0 0 0 1 1 1 3 6 7 9 16 20 23 34 47 52 51 49 47 43 38 35 35 31 25 22 24 29 31 33 35 34 28 20 11 6 3 3 6 9 8 5 4 3 3 3 2 2
0 0 0 0 0 1 2 3 3 4 9 17 25 33 42 48 48 48 50 52 50 44 37 33 31 29 27 31 33 30 28 28 25 19 12 6 2 1 5 10 9 5 4 3 3 3 2 2 2
0 0 0 0 0 0 1 2 2 3 8 15 22 33 40 40 36 37 43 48 46 42 37 34 34 32 33 38 40 37 33 29 24 18 14 9 7 4 5 8 7 3 2 1 2 2 2 2 3
0 0 0 0 0 0 0 2 3 6 11 15 21 28 32 31 27 26 33 38 36 32 32 35 36 35 36 41 46 45 42 36 30 25 20 15 10 6 5 6 5 3 2 2 2 2 2 3 3
0 0 0 1 1 0 1 2 6 9 12 16 20 22 22 22 22 21 23 26 25 24 27 32 35 36 39 44 46 44 43 39 34 30 23 16 11 7 6 7 6 3 3 4 3 3 4 4 4
0 0 0 1 1 0 1 3 6 9 10 13 17 16 14 14 16 15 14 14 15 18 22 27 32 36 39 40 38 36 34 32 29 28 22 15 11 9 8 7 5 4 4 4 2 2 4 5 5
0 0 0 1 1 0 1 3 5 6 8 11 14 13 12 11 10 9 7 6 7 11 15 21 26 30 32 31 28 25 23 23 24 24 21 15 12 12 12 9 6 7 7 4 2 2 3 4 4
0 0 0 0 0 0 1 3 5 6 9 13 16 16 13 10 8 8 6 5 5 7 10 15 20 23 24 25 23 19 18 20 23 23 20 17 15 17 17 12 10 11 10 7 5 4 5 4 3
0 0 0 0 0 0 1 3 5 5 9 15 18 17 14 9 8 10 9 6 6 7 8 12 16 19 20 21 20 17 16 18 21 21 20 19 18 18 18 16 15 13 12 9 7 7 7 4 2
0 0 0 0 0 1 2 4 5 5 7 13 16 16 13 9 7 8 6 5 7 10 11 13 16 18 18 17 16 15 15 15 17 19 20 19 16 16 17 17 16 14 13 11 8 7 6 4 3
0 0 0 0 0 1 2 3 4 4 5 9 13 14 12 8 6 5 4 5 8 13 14 16 19 19 16 14 14 13 13 15 15 18 20 18 14 15 16 15 15 14 15 13 10 7 5 4 4
0 0 0 0 0 2 3 3 4 4 5 7 11 12 11 8 5 5 4 5 9 14 16 17 19 18 15 12 11 12 13 14 14 16 17 16 13 16 17 17 17 16 16 15 13 9 6 5 6
0 0 0 0 0 1 3 3 4 6 7 10 13 15 12 9 7 6 6 7 10 13 15 15 15 14 13 12 10 11 11 12 12 13 13 11 11 13 15 17 19 18 17 16 15 11 8 8 9
0 0 0 0 0 0 1 2 3 7 9 11 14 18 17 12 9 9 9 9 10 12 12 11 10 10 11 12 11 10 10 9 9 10 9 8 7 7 9 13 16 16 15 15 14 11 9 9 10
0 0 0 0 0 0 0 0 2 4 5 6 10 17 21 16 11 10 11 10 10 9 8 7 6 7 10 10 9 9 8 7 7 9 7 6 5 3 4 8 11 10 10 11 11 9 8 8 9
0 0 0 0 0 0 0 0 1 1 1 3 8 18 24 20 13 11 12 11 10 7 5 4 4 6 7 7 6 5 5 4 5 6 5 5 4 3 3 5 7 7 6 7 7 6 6 6 7
0 0 0 0 0 0 0 0 1 1 3 5 11 21 27 22 15 13 13 12 10 8 5 4 4 4 4 4 3 2 2 1 2 2 3 3 3 3 3 4 5 5 5 6 6 5 4 4 4
0 0 0 0 0 0 0 0 1 3 6 8 13 22 25 20 15 14 14 12 10 8 6 5 4 2 1 1 1 1 1 1 1 1 1 2 3 2 1 2 3 4 4 5 5 5 5 4 2
0 0 0 0 0 0 0 0 1 3 6 9 13 19 20 17 15 14 12 9 6 5 4 4 4 2 0 0 1 2 2 2 2 1 1 2 2 1 0 1 2 3 2 3 5 5 5 4 2
0 0 0 0 0 0 0 0 0 2 6 9 13 16 15 14 14 13 9 5 2 1 1 3 3 2 1 0 1 2 3 3 2 1 0 1 1 0 0 1 2 1 1 2 3 4 4 3 1
0 0 0 0 0 0 0 0 0 1 5 10 14 15 14 13 13 11 7 2 0 0 1 2 2 2 1 0 1 2 2 2 1 0 0 0 0 0 0 1 1 0 0 1 2 3 3 1 0
0 0 0 0 0 0 0 0 0 1 4 9 14 15 15 13 12 9 5 2 0 0 0 1 1 1 0 0 0 1 1 1 0 0 0 0 0 0 0 0 0 0 0 1 2 3 2 1 0

GEFSSGP_con_prob3kmehi_132.txt.gz
EHI
0 0 0 0 0 0 0 1 2 2 4 7 9 15 26 28 17 10 15 36 54 50 41 42 42 35 20 8 5 4 2 1 1 1 0 0 0 0 0 1 0 0 0 0 0 0 0 0 0
0 0 0 0 0 0 1 1 3 4 4 6 11 20 29 26 16 14 22 37 46 42 39 43 45 40 28 15 8 7 5 4 3 2 1 1 1 0 1 2 1 0 0 0 0 0 0 0 0
0 0 0 0 0 1 2 3 4 5 3 6 16 30 36 29 20 22 29 35 38 38 43 51 52 46 35 22 13 10 8 6 5 5 3 2 2 2 3 3 2 1 1 0 0 0 0 0 0
0 0 0 0 0 2 2 3 5 4 3 8 22 37 42 35 27 28 30 32 36 42 50 57 58 51 39 28 20 14 11 9 9 8 5 4 4 4 4 4 2 1 0 0 0 0 0 0 0
0 0 0 0 0 1 2 2 3 3 4 12 28 42 43 37 31 28 27 30 38 47 51 55 59 56 45 36 30 25 21 20 19 14 8 7 8 6 4 3 2 1 0 0 0 0 0 0 0
0 0 0 0 0 1 2 2 3 5 6 14 32 46 44 36 31 28 26 31 42 49 48 48 53 53 48 43 41 40 39 38 34 26 17 13 12 8 4 2 1 0 0 0 0 0 0 0 0
0 0 0 0 0 0 1 2 4 8 11 18 33 45 45 40 36 32 29 34 44 47 42 38 39 41 41 42 45 49 50 48 42 32 22 16 10 6 3 2 2 1 0 0 0 0 0 0 0
0 0 0 0 0 1 2 3 5 8 13 21 31 41 48 48 42 36 35 40 46 46 40 34 32 32 31 34 41 46 47 45 40 29 19 12 6 2 2 4 6 4 1 0 0 0 0 0 0
0 0 0 0 1 2 3 5 5 6 12 23 36 49 56 52 41 37 42 49 52 51 42 33 30 27 24 27 35 38 37 38 34 25 16 10 5 2 4 11 16 10 3 1 1 0 0 0 1
0 0 0 0 0 2 3 4 4 5 13 30 51 64 63 51 39 38 46 55 58 53 42 33 28 25 25 29 34 32 32 34 29 22 18 12 7 7 13 25 28 18 7 3 2 1 1 1 2
0 0 0 1 1 2 3 4 6 11 21 40 60 68 61 47 38 37 45 54 55 49 41 35 31 31 34 38 36 31 32 35 31 26 24 17 12 16 24 32 33 21 9 5 4 4 3 2 3
0 0 1 2 2 3 4 6 12 22 33 45 55 58 52 43 38 39 45 51 52 47 43 39 39 43 48 46 39 32 33 37 38 36 32 23 17 20 27 32 31 20 9 7 7 5 4 4 3
0 1 2 3 3 3 3 7 15 27 37 44 49 48 44 43 44 46 49 52 52 49 46 43 44 52 58 55 45 35 34 36 38 38 32 25 21 22 26 29 27 19 11 11 10 6 5 5 5
0 1 2 2 2 1 2 6 13 24 33 38 42 45 46 49 51 53 55 57 56 53 49 46 48 56 62 60 49 38 35 35 33 32 28 24 25 27 29 28 25 19 16 18 15 10 9 8 6
0 0 1 1 1 0 1 4 11 20 27 33 39 45 51 52 53 58 62 62 59 55 50 47 46 50 57 58 49 39 34 34 34 32 30 28 29 32 33 31 26 22 23 26 22 16 13 8 5
0 0 0 0 0 0 1 4 11 19 25 32 40 45 48 48 51 57 61 61 58 54 52 47 42 44 50 53 49 41 35 35 37 35 33 32 32 33 33 32 29 26 26 27 23 17 12 8 7
0 0 0 0 1 1 1 6 13 19 24 33 40 43 43 44 48 51 52 55 55 53 51 47 45 46 46 46 45 41 37 35 35 34 31 29 30 32 31 31 30 26 25 23 19 15 13 12 13
0 0 0 0 1 1 1 7 13 17 23 31 38 42 44 45 47 46 47 51 53 52 49 48 48 48 45 43 41 38 35 33 31 30 27 25 27 29 28 28 28 27 25 21 17 15 16 18 19
0 0 0 0 1 1 1 6 10 14 19 28 37 45 49 51 49 48 50 51 51 51 50 47 46 44 43 41 38 33 32 30 27 27 25 23 24 24 24 25 26 27 25 21 18 16 16 18 20
0 0 0 0 1 1 1 4 8 12 17 25 36 46 53 55 53 53 53 51 49 51 50 45 43 41 39 37 33 28 27 25 24 25 24 22 21 20 21 23 24 24 22 19 17 15 13 14 15
0 0 0 0 1 1 1 3 8 11 15 21 31 41 50 54 56 56 54 49 47 48 48 44 42 41 37 33 30 27 26 23 22 22 22 21 18 17 17 19 20 21 18 15 14 12 11 10 10
0 0 0 1 1 0 0 2 8 11 14 20 29 38 45 52 56 55 51 46 44 44 44 43 42 41 38 34 33 30 26 23 21 20 19 18 17 15 15 15 16 17 15 12 11 10 9 8 7
0 0 0 0 0 0 0 2 6 10 13 18 27 36 44 51 54 51 46 41 39 40 41 40 39 38 35 33 32 30 27 24 21 17 15 14 15 14 12 13 14 14 13 11 10 9 9 8 7
0 0 0 0 0 0 0 1 4 7 9 13 23 34 45 51 50 46 42 38 36 36 34 33 33 32 30 27 25 25 24 23 19 14 10 9 10 11 10 11 12 12 11 10 8 7 7 8 7
0 0 0 0 0 0 0 1 3 5 8 12 22 36 44 46 46 42 38 36 34 33 29 26 24 25 24 21 19 17 16 16 13 10 7 5 5 7 8 9 9 10 8 5 4 4 4 5 6
0 0 0 0 0 0 0 1 3 8 11 16 26 36 40 39 39 38 36 33 31 29 25 21 17 17 17 15 13 12 9 8 8 8 6 6 6 7 7 6 6 6 5 2 1 1 2 3 4
0 0 0 0 0 0 0 1 5 10 14 19 26 32 34 35 37 37 35 31 26 23 20 16 13 11 10 8 7 7 6 6 6 5 6 7 8 7 6 5 4 4 3 2 1 0 1 1 2
0 0 0 0 0 0 0 1 4 10 15 21 26 30 33 37 37 36 33 27 21 18 14 12 9 8 7 6 4 4 4 4 4 4 5 7 7 7 6 5 3 2 2 2 1 0 0 0 1
0 0 0 0 0 0 0 1 4 11 18 23 26 30 35 37 35 33 29 22 17 14 10 7 6 6 6 5 5 4 3 3 3 3 4 4 5 5 4 3 2 1 1 1 0 0 0 1 2
0 0 0 0 0 0 0 1 6 14 20 23 25 30 36 36 32 30 26 19 14 11 7 5 4 4 4 5 6 5 4 3 3 2 2 2 2 4 3 2 1 0 0 0 0 0 1 2 3

GEFSSGP_con_prob3kmehi_138.txt.gz
EHI
0 0 0 0 0 0 0 0 2 7 12 18 26 31 26 16 8 3 3 18 46 55 41 34 36 32 21 13 11 10 8 7 8 12 16 17 15 11 8 7 6 3 1 0 0 0 0 0 0
0 0 0 0 0 0 0 0 3 9 18 28 36 37 28 19 12 6 7 27 54 58 44 38 41 37 25 15 10 8 8 7 7 10 12 12 11 9 7 5 4 2 1 0 0 0 0 0 0
0 0 0 0 0 0 0 2 7 16 28 42 49 44 31 20 13 9 16 41 61 58 47 45 50 47 34 20 10 7 6 5 5 7 8 8 8 7 5 2 1 1 1 0 0 0 0 0 0
0 0 0 0 0 0 0 3 12 24 35 47 54 48 36 25 20 21 33 52 63 58 49 50 57 56 43 28 16 9 5 4 4 5 7 8 7 5 3 1 1 1 1 0 0 0 0 0 0
0 0 0 0 0 0 1 5 17 29 37 46 53 49 41 35 35 40 47 56 63 62 55 55 63 63 50 36 25 15 9 7 7 7 8 9 7 4 2 1 1 2 1 1 0 0 0 0 0
0 0 0 0 0 0 2 7 18 28 34 41 48 48 40 37 42 48 52 56 60 62 59 57 60 61 54 43 35 27 19 15 13 11 10 9 6 4 2 1 2 3 3 2 1 0 0 0 1
0 0 0 0 0 0 3 9 16 22 26 33 40 42 38 37 42 51 55 56 57 58 56 51 48 48 46 42 39 35 29 23 19 15 12 9 5 2 2 2 3 3 3 3 2 1 0 0 1
0 0 0 0 0 0 3 9 15 18 21 25 31 35 38 42 50 56 57 56 53 49 45 42 37 34 34 33 32 31 29 25 19 14 11 9 6 3 2 3 4 4 4 4 4 3 1 1 1
0 0 0 0 0 0 2 7 14 20 24 26 30 35 42 50 58 60 56 51 46 40 35 34 33 30 29 28 25 23 23 20 15 10 9 9 7 5 3 3 4 4 3 4 6 6 3 2 2
0 0 0 0 0 0 2 6 11 20 28 31 37 46 52 55 58 59 54 46 40 34 29 27 29 30 29 27 24 20 18 15 11 8 8 7 6 4 4 3 3 4 4 5 7 7 4 2 1
0 0 0 0 0 1 4 9 15 22 28 32 43 55 56 53 52 53 52 45 37 30 25 22 24 26 26 24 22 18 15 12 10 8 7 6 4 3 3 3 4 5 6 6 7 6 4 2 1
0 0 0 0 1 3 8 16 23 26 27 32 45 54 52 48 46 46 47 46 38 29 22 18 18 20 20 18 15 13 12 10 9 8 7 6 5 3 3 3 4 5 5 5 5 5 3 1 0
0 0 0 0 2 7 14 22 26 27 29 37 49 52 46 43 43 42 44 44 40 31 22 16 14 14 13 10 9 9 8 8 6 5 6 6 5 3 2 3 3 4 3 3 3 2 1 0 0
0 0 0 0 2 9 18 23 22 23 30 41 50 48 41 38 40 42 41 40 36 31 24 18 15 14 10 8 7 6 6 5 3 3 3 4 3 2 2 2 2 2 2 2 2 1 1 0 0
0 0 0 0 1 6 14 19 18 22 32 45 48 43 36 34 38 40 38 34 32 30 28 24 22 18 14 11 9 7 6 4 2 2 3 2 2 1 2 2 2 1 1 1 1 2 1 0 0
0 0 0 0 0 2 7 12 17 24 37 47 48 41 35 36 39 38 34 31 30 30 29 27 26 22 17 14 11 9 7 4 3 3 3 2 2 2 3 4 3 2 1 0 1 1 1 0 0
0 0 0 0 0 0 3 9 18 27 37 46 48 44 41 41 40 36 32 29 27 27 27 25 24 21 17 15 12 9 7 5 3 3 3 2 3 3 4 6 6 5 2 0 0 0 0 0 0
0 0 0 0 0 0 3 11 21 29 35 42 47 47 45 42 37 34 31 27 24 24 25 24 22 19 16 14 12 9 6 4 4 4 2 2 3 4 5 6 6 5 2 0 0 0 0 0 0
0 0 0 0 0 0 4 12 22 28 33 38 44 45 44 39 34 33 31 26 23 23 23 23 21 18 14 12 11 9 6 4 4 4 3 3 3 3 4 5 4 3 1 0 0 0 0 0 0
0 0 0 0 0 0 4 11 18 24 29 33 38 41 40 36 33 32 30 25 22 21 19 18 18 16 12 12 11 9 7 5 4 4 3 3 3 3 4 4 4 3 2 1 1 0 0 0 0
0 0 1 1 1 0 2 7 13 18 22 25 31 36 37 34 32 30 27 24 21 17 15 14 15 13 11 11 12 12 10 7 5 3 2 1 1 2 3 3 3 3 3 3 2 1 0 0 0
0 0 1 1 1 0 1 3 8 13 16 19 24 29 32 32 31 29 26 24 22 17 14 14 13 12 9 10 12 12 8 5 3 2 1 0 0 1 1 1 3 3 3 3 2 1 0 0 0
0 0 0 0 0 0 0 1 4 8 12 16 21 25 29 29 28 27 26 24 21 19 16 16 14 11 9 9 10 8 4 2 2 1 0 0 0 0 0 1 2 3 3 2 2 1 0 0 0
0 0 0 0 0 0 0 0 1 3 7 12 18 23 26 27 26 25 23 21 21 20 19 18 16 12 9 9 8 4 2 2 3 2 1 0 0 0 0 1 2 2 1 1 1 0 0 0 0
0 0 0 0 0 0 0 0 0 0 3 7 13 20 24 26 26 24 21 20 20 20 19 19 16 11 9 8 6 4 2 3 3 2 1 0 0 0 0 0 1 1 0 0 0 0 0 0 0
0 0 0 0 0 0 0 0 1 1 3 7 12 18 22 24 24 23 21 21 21 20 19 17 13 9 7 6 4 3 2 2 1 1 1 0 0 0 0 0 0 0 0 0 0 0 0 0 0
0 0 0 0 0 0 0 0 2 4 6 9 12 16 19 20 21 21 21 21 21 20 18 14 10 7 6 4 3 2 1 0 0 0 0 0 0 0 0 0 0 0 0 0 0 0 0 0 0
0 0 0 0 0 0 0 0 2 4 7 10 12 14 15 16 18 20 19 18 18 16 13 9 6 5 4 2 1 1 0 0 0 0 0 0 0 0 0 0 0 0 0 0 0 0 0 0 0
0 0 0 0 0 0 0 0 0 1 3 7 11 12 11 12 15 17 16 14 13 11 8 5 3 2 1 0 0 0 0 0 0 0 0 0 0 0 0 0 0 0 0 0 0 0 0 0 0
0 0 0 0 0 0 0 0 0 0 1 4 9 11 10 11 13 14 14 12 11 8 5 3 1 0 0 0 0 0 0 0 0 0 0 0 0 0 0 0 0 0 0 0 0 0 0 0 0

GEFSSGP_con_prob3kmehi_144.txt.gz
EHI
0 0 0 0 0 0 0 0 0 0 0 1 1 1 0 0 1 3 5 12 24 25 15 9 11 21 32 38 42 45 48 53 58 58 52 42 34 26 17 11 6 2 1 0 1 2 2 1 0
0 0 0 0 0 0 0 0 0 0 1 2 3 2 1 1 3 6 8 13 24 27 17 12 17 27 34 38 42 44 44 48 54 54 47 38 31 23 15 9 5 3 1 0 0 1 1 1 1
0 0 0 0 0 0 0 1 2 2 2 4 4 4 4 4 5 7 10 17 25 25 18 18 28 36 38 38 40 41 40 42 46 47 41 34 27 20 12 6 4 3 2 0 0 1 1 2 3
0 0 0 0 0 0 0 1 3 3 4 5 6 7 9 7 7 10 15 21 27 24 18 22 35 43 42 40 39 37 37 39 39 38 34 30 26 20 12 5 3 2 2 0 0 1 1 3 4
0 0 0 0 0 0 0 0 2 4 7 9 10 12 14 13 14 19 22 24 28 27 22 26 38 46 45 44 40 36 36 38 35 30 25 23 22 19 14 9 5 3 1 1 0 0 2 4 6
0 0 0 0 0 0 0 0 1 4 9 12 14 17 19 21 24 27 29 30 33 34 30 31 39 45 46 46 42 38 35 35 33 27 20 16 16 18 16 13 9 4 2 2 2 1 1 3 5
0 0 0 0 0 0 0 0 0 3 8 11 15 18 22 26 30 34 38 40 39 38 37 37 40 42 43 42 40 37 34 31 29 24 18 13 13 14 15 13 10 6 2 2 3 2 1 1 2
0 0 0 0 0 0 0 0 1 3 6 9 12 16 23 31 40 47 51 48 42 36 36 38 39 38 36 33 31 30 28 24 22 20 14 10 9 9 11 11 10 6 3 1 1 1 0 0 0
0 0 0 0 0 0 0 0 1 3 6 9 14 20 32 46 56 60 59 52 42 34 32 32 34 34 31 26 23 22 20 16 14 13 10 7 6 5 6 8 7 5 3 1 1 1 0 0 0
0 0 0 0 0 0 0 0 1 4 7 12 21 35 50 60 62 61 56 48 40 34 30 27 28 28 25 21 18 16 13 10 9 8 7 6 4 4 5 4 4 3 2 3 4 3 2 1 1
0 0 0 0 0 0 0 1 2 4 7 14 31 52 63 62 56 49 43 39 35 32 30 29 26 24 21 17 16 15 12 10 9 8 7 6 5 4 4 2 1 1 2 4 6 6 5 3 1
0 0 0 0 0 0 1 3 4 5 10 20 39 57 63 56 45 37 33 32 30 28 28 28 25 22 19 17 16 16 14 12 11 9 8 8 6 4 2 0 0 1 3 4 5 7 6 3 1
0 0 0 0 0 1 3 6 9 11 17 29 42 51 52 45 36 30 30 31 30 27 25 24 22 20 19 19 18 16 14 11 9 8 8 8 7 3 1 0 0 1 2 3 4 6 6 4 2
0 0 0 0 0 1 5 8 12 16 24 34 38 39 38 34 30 29 29 28 27 25 23 21 19 17 17 17 16 14 10 8 7 7 7 8 6 2 0 0 0 0 1 2 3 4 5 4 3
0 0 0 0 0 1 4 6 10 17 26 32 34 33 30 28 28 29 27 22 21 21 19 17 14 13 12 11 10 10 7 5 5 5 5 5 3 1 0 0 0 0 0 1 2 3 3 3 2
0 0 0 0 0 1 1 3 8 17 26 31 32 31 27 25 27 28 24 17 14 13 12 11 10 9 8 6 6 6 4 3 3 2 2 1 0 0 0 0 0 0 0 0 1 1 1 1 0
0 0 0 0 0 0 0 2 7 16 24 29 31 30 26 24 25 25 21 14 8 7 7 9 9 7 5 4 3 3 2 1 1 0 0 0 0 0 0 0 0 0 0 0 0 0 0 0 0
0 0 0 0 0 0 0 2 7 14 22 28 30 30 27 24 23 22 18 11 6 5 8 10 9 6 4 3 2 1 1 0 0 0 0 0 0 0 0 0 0 0 0 1 0 0 0 0 0
0 0 0 0 0 0 0 2 5 12 20 27 29 29 29 26 23 20 14 10 9 8 8 9 7 5 5 5 3 2 1 0 0 0 0 0 0 0 0 0 0 0 0 0 0 0 0 0 0
0 0 0 0 0 0 0 1 4 9 15 20 24 27 28 27 25 20 14 12 11 10 8 7 6 6 6 6 4 2 2 1 0 0 0 0 0 0 0 0 0 0 0 0 0 0 0 0 0
0 0 0 0 0 0 0 1 3 5 7 12 18 23 26 26 25 21 16 14 13 10 9 8 6 5 5 5 3 3 2 1 0 0 0 0 0 0 0 0 0 0 0 0 0 0 0 0 0
0 0 0 0 0 0 0 0 1 1 2 5 11 18 23 24 24 21 17 15 13 10 9 8 6 5 4 3 2 2 1 0 0 0 0 0 0 0 0 0 0 0 0 0 0 0 0 0 0
0 0 0 0 0 0 0 0 0 0 0 2 6 11 17 20 21 19 18 15 12 10 9 7 5 4 3 2 1 1 0 0 0 0 0 0 0 0 0 0 0 0 0 0 0 0 0 0 0
0 0 0 0 0 0 0 0 0 0 0 1 3 6 10 15 17 16 16 15 12 10 9 7 6 4 2 0 0 0 0 0 0 0 0 0 0 0 0 0 0 0 0 0 0 0 0 0 0
0 0 0 0 0 0 0 0 0 0 0 1 2 4 7 11 14 14 13 14 14 12 10 9 7 4 1 0 0 0 0 0 0 0 0 0 0 0 0 0 0 0 0 0 0 0 0 0 0
0 0 0 0 0 0 0 0 0 0 0 1 3 5 7 8 11 13 13 13 15 14 12 9 7 5 3 1 0 0 0 0 0 0 0 0 0 0 0 0 0 0 0 0 0 0 0 0 0
0 0 0 0 0 0 0 0 0 0 1 2 3 5 6 7 8 11 12 13 14 15 12 8 6 5 3 1 0 0 0 0 0 0 0 0 0 0 0 0 0 0 0 0 0 0 0 0 0
0 0 0 0 0 0 0 0 0 0 1 2 3 3 4 5 7 8 10 11 13 13 9 5 3 3 2 1 0 0 0 0 0 0 0 0 0 0 0 0 0 0 0 0 0 0 0 0 0
0 0 0 0 0 0 0 0 0 0 1 2 2 1 1 3 5 6 8 9 10 9 6 2 1 1 1 0 0 0 0 0 0 0 0 0 0 0 0 0 0 0 0 0 0 0 0 0 0
0 0 0 0 0 0 0 0 0 0 0 1 1 1 1 3 4 5 8 9 8 7 4 1 0 0 0 0 0 0 0 0 0 0 0 0 0 0 0 0 0 0 0 0 0 0 0 0 0

GEFSSGP_con_prob3kmehi_150.txt.gz
EHI
0 0 0 0 0 0 0 0 0 0 0 0 0 0 0 0 1 4 9 14 17 19 16 9 7 11 21 37 52 63 70 71 65 55 45 30 14 6 4 4 4 3 2 2 2 2 1 0 0
0 0 0 0 0 0 0 0 0 0 0 0 0 0 0 0 2 6 12 16 17 16 13 9 9 12 21 35 49 58 64 68 62 52 41 30 17 8 4 3 3 2 1 1 1 1 0 0 0
0 0 0 0 0 0 0 0 0 0 0 0 0 1 1 2 5 10 15 18 16 12 10 11 11 13 21 33 44 52 57 59 57 49 39 30 21 12 5 2 1 1 0 0 0 0 0 0 0
0 0 0 0 0 0 0 0 1 1 0 0 1 1 2 5 10 15 18 17 14 9 8 11 11 12 20 30 41 49 54 55 54 49 40 30 22 13 6 3 1 0 0 0 0 0 0 0 0
0 0 0 0 0 0 0 1 1 1 2 2 2 2 5 14 20 22 19 15 11 7 7 11 11 11 18 27 38 46 51 53 53 47 38 29 20 12 6 3 1 0 0 0 1 1 1 0 0
0 0 0 0 0 0 0 1 1 2 3 2 2 4 12 25 33 28 18 13 9 7 9 13 12 12 17 25 33 40 44 47 46 40 32 25 17 10 5 4 3 1 0 0 1 2 1 0 0
0 0 0 0 0 0 0 1 1 2 2 1 1 4 18 37 43 34 22 16 13 13 14 15 13 13 15 20 27 32 36 37 34 29 24 19 14 9 6 5 4 3 1 0 1 1 0 0 0
0 0 0 0 0 0 1 2 2 1 1 1 1 5 24 51 57 44 33 26 23 20 20 19 18 14 11 13 19 23 26 27 23 20 17 14 9 6 5 6 8 6 2 0 0 1 1 0 0
0 0 0 0 0 0 1 2 2 1 1 3 6 15 39 64 69 57 45 37 33 29 26 25 24 19 11 9 13 15 17 16 15 13 11 8 5 4 5 10 12 9 3 1 1 2 1 0 0
0 0 0 0 0 0 1 2 1 0 1 4 12 29 54 70 70 60 49 41 37 35 31 29 29 25 18 15 16 14 13 12 10 9 8 5 4 4 5 11 12 8 4 2 2 2 1 0 1
0 0 0 0 0 0 1 2 1 1 1 5 16 39 61 69 64 55 46 39 36 36 34 32 32 30 26 25 23 20 17 14 11 10 8 6 5 4 5 7 7 5 4 3 3 2 1 0 1
0 0 0 0 0 0 1 2 2 3 5 8 20 41 58 62 56 47 40 35 33 34 33 34 34 32 30 29 27 24 22 20 19 16 12 8 6 6 6 7 6 5 4 4 3 3 1 0 1
0 0 0 0 0 0 1 3 5 7 10 15 26 40 51 54 49 41 35 32 32 33 33 35 36 34 31 29 27 25 25 26 25 21 16 11 10 10 11 13 12 8 6 5 4 4 3 3 2
0 0 0 0 0 0 2 4 7 10 14 21 31 39 44 45 42 38 35 32 32 33 35 38 39 37 33 28 25 24 25 28 27 23 18 14 12 12 12 14 14 12 9 8 7 6 7 8 7
0 0 0 0 0 0 2 4 7 10 15 23 30 34 34 34 33 34 33 31 32 34 37 39 38 35 33 29 27 23 23 26 26 23 19 15 12 12 13 13 12 12 12 12 10 9 10 11 11
0 0 0 0 0 0 1 2 6 9 14 20 24 25 25 25 26 26 25 26 29 34 39 40 36 33 34 35 32 25 21 22 21 19 17 15 13 12 14 13 10 10 10 10 10 11 13 13 12
0 0 0 0 0 0 0 1 4 7 10 14 18 20 20 22 24 23 21 22 26 33 39 39 37 35 37 39 34 25 19 15 13 12 11 11 12 12 11 9 7 6 6 6 7 11 14 13 12
0 0 0 0 0 0 0 1 3 5 7 11 15 18 19 22 25 25 23 22 25 31 36 37 38 38 39 37 31 24 16 10 8 8 7 7 8 9 7 5 4 4 4 4 6 8 10 9 9
0 0 0 0 0 0 0 1 3 4 5 9 14 17 19 22 25 27 26 25 27 31 34 35 37 38 37 34 29 21 14 9 9 9 8 5 4 4 5 4 2 2 4 5 5 6 6 5 5
0 0 0 0 0 0 0 1 3 5 6 10 14 17 18 20 25 28 28 27 28 30 32 34 36 36 33 30 26 20 14 12 12 13 10 5 2 2 2 2 1 2 4 5 5 5 5 4 3
0 0 0 0 0 0 0 1 3 5 7 10 15 19 19 18 23 28 29 28 27 27 29 33 35 32 28 25 21 18 14 13 14 14 11 6 4 2 1 1 1 1 2 4 5 5 4 3 2
0 0 0 0 0 0 0 1 3 5 7 10 14 18 19 18 22 27 28 25 23 23 25 30 32 28 23 21 18 15 13 11 11 11 10 8 6 4 2 1 1 2 3 4 4 3 2 1 1
0 0 0 0 0 0 0 0 2 4 6 8 11 15 17 18 19 23 23 20 18 19 21 25 26 23 19 18 16 14 11 9 8 8 8 8 7 6 5 3 1 2 3 3 3 2 1 0 0
0 0 0 0 0 0 0 0 1 2 4 6 8 11 13 14 15 16 17 16 16 18 20 22 21 19 17 15 14 13 11 8 6 5 6 6 5 5 5 3 1 1 1 2 1 1 1 0 0
0 0 0 0 0 0 0 0 1 2 3 5 6 8 10 10 10 12 14 15 15 18 20 20 19 17 16 14 12 11 10 7 5 4 5 4 2 3 4 2 0 0 1 0 0 0 1 0 0
0 0 0 0 0 0 0 0 1 2 3 4 5 6 8 8 8 10 12 13 13 15 18 19 19 17 15 13 12 12 10 8 9 10 8 5 3 2 3 1 0 0 0 0 0 0 0 0 0
0 0 0 0 0 0 0 0 1 1 2 2 3 6 8 7 7 9 11 11 12 14 17 19 20 19 17 15 13 12 11 10 12 14 10 6 4 4 3 2 1 0 0 0 0 0 0 0 0
0 0 0 0 0 0 0 0 0 0 1 3 4 6 7 6 6 7 9 11 13 15 18 21 22 20 19 17 14 11 11 11 12 12 8 5 3 3 3 2 1 0 0 0 0 0 1 0 0
0 0 0 0 0 0 0 0 0 1 2 5 6 6 5 5 5 5 8 11 14 16 19 21 20 19 18 17 14 11 11 11 10 8 5 3 1 1 1 2 2 1 0 0 0 0 0 0 0
0 0 0 0 0 0 0 0 0 1 3 5 7 6 3 4 5 6 8 12 14 16 19 20 18 15 15 16 14 12 12 11 9 7 5 2 0 0 1 2 3 2 1 0 0 0 0 0 0

GEFSSGP_con_prob3kmehi_156.txt.gz
EHI
0 0 0 0 0 0 0 0 1 3 4 4 4 7 12 17 16 12 12 27 43 41 33 35 34 28 20 14 10 8 7 7 6 4 3 3 4 5 6 5 4 3 3 3 3 3 3 3 3
0 0 0 0 0 0 0 1 3 5 6 5 6 9 13 15 15 14 18 29 37 33 29 33 34 28 20 15 12 10 9 8 8 5 4 3 4 5 6 4 3 3 4 3 3 3 3 3 3
0 0 0 0 0 0 0 2 5 6 5 5 7 12 15 15 14 18 25 29 30 27 27 34 37 29 21 17 14 12 9 9 8 7 5 4 4 6 6 5 4 4 5 4 4 4 4 3 3
0 0 0 0 0 0 0 3 5 4 4 5 10 19 23 19 16 22 25 24 27 29 30 34 37 31 23 19 15 13 11 10 10 9 7 5 5 6 6 6 6 6 6 5 5 6 6 4 3
0 0 0 0 0 0 2 4 4 3 5 7 14 29 33 23 19 22 19 17 27 36 33 32 35 30 23 19 18 16 16 15 13 13 11 8 7 8 7 6 6 6 5 4 5 7 7 4 3
0 0 0 0 0 0 2 3 2 3 6 7 16 32 36 26 21 18 14 16 31 40 34 30 32 28 22 21 22 23 22 21 19 18 15 11 8 7 6 5 5 6 4 3 4 6 6 4 3
0 0 0 0 0 0 1 2 3 6 8 8 14 28 35 32 25 18 15 21 36 43 34 26 25 24 22 22 25 26 26 25 24 22 18 13 9 6 4 4 4 5 4 3 3 4 4 3 3
0 0 0 0 0 0 1 2 5 10 11 10 13 25 37 39 32 23 21 29 43 48 36 24 21 21 20 21 24 25 26 26 26 23 18 13 8 5 4 5 7 7 4 3 3 3 4 4 4
0 0 0 0 0 0 1 2 5 9 11 12 18 32 46 45 36 31 30 37 50 53 41 28 21 19 19 20 22 23 24 24 22 20 16 12 7 5 6 14 21 17 10 8 7 7 7 6 5
0 0 0 0 0 1 1 2 3 6 9 14 27 44 53 49 41 36 36 43 54 56 46 34 27 23 22 26 27 23 21 21 17 15 16 13 8 7 13 28 36 28 17 14 13 13 11 7 5
0 0 0 0 0 1 1 2 2 4 9 17 32 47 51 48 42 37 36 45 55 56 49 41 37 34 33 37 34 24 21 22 18 19 22 19 14 14 22 35 39 29 18 15 16 17 14 8 5
0 0 0 0 0 0 1 3 4 6 8 17 30 41 43 42 41 39 40 47 55 56 51 48 48 48 48 49 42 29 28 31 30 33 35 28 23 23 29 37 37 27 19 16 17 18 17 12 10
0 0 0 0 0 0 1 4 6 7 7 14 25 34 37 40 44 48 51 56 61 61 57 54 56 60 63 63 55 44 44 46 47 49 48 38 35 35 37 42 40 29 23 22 21 22 23 21 18
0 0 0 0 0 0 1 3 6 8 9 13 22 29 34 43 53 60 63 66 70 70 66 61 63 69 72 71 67 59 56 57 57 57 53 45 43 43 44 46 42 32 26 28 27 27 27 25 21
0 0 0 0 0 1 1 3 7 10 11 14 21 27 34 45 56 64 67 68 72 74 72 66 66 72 75 71 68 63 60 60 59 57 54 48 43 42 43 43 40 34 30 31 31 30 26 20 16
0 0 0 0 0 1 2 4 9 11 10 12 18 25 33 42 52 59 63 65 69 73 74 70 68 72 73 69 65 62 59 60 59 58 56 48 39 35 35 36 38 36 31 29 28 26 22 16 11
0 0 0 0 0 1 2 5 10 11 9 10 15 22 30 37 46 56 61 65 69 73 74 72 70 71 69 66 64 62 59 60 60 59 55 46 34 28 27 31 35 33 28 24 21 21 20 15 11
0 0 0 0 0 0 1 3 8 9 9 11 14 20 28 35 44 55 61 64 69 71 71 70 69 67 65 62 61 61 60 58 57 54 49 40 30 23 20 24 29 27 23 19 16 16 15 13 11
0 0 0 0 0 0 0 1 5 9 10 13 15 20 29 36 44 53 57 60 63 65 65 65 65 63 60 58 57 58 58 54 50 46 41 33 25 19 16 18 22 23 21 18 14 12 11 9 8
0 0 0 0 0 0 0 1 5 10 12 14 18 23 30 38 44 49 52 52 53 54 56 58 59 57 55 55 55 56 55 49 43 40 36 29 21 16 14 15 18 20 21 18 14 11 9 7 5
0 0 0 0 0 0 0 1 6 11 12 15 20 24 29 35 40 45 46 44 42 44 48 52 53 52 50 52 53 53 51 45 38 36 35 29 21 16 15 16 18 20 20 18 15 13 10 6 4
0 0 0 0 0 0 0 2 7 11 14 17 20 23 26 29 33 38 39 35 34 37 41 46 48 46 44 45 46 45 43 40 35 33 33 29 22 18 17 18 19 20 20 18 15 14 12 8 4
0 0 0 0 0 0 0 2 7 12 15 17 18 20 24 26 28 33 33 30 30 32 35 39 43 43 40 39 39 37 36 35 32 29 28 27 24 21 18 18 18 18 18 19 16 14 12 8 6
0 0 0 0 0 0 0 1 6 9 11 14 16 18 22 25 28 33 33 30 29 29 31 34 38 39 38 38 37 34 31 30 28 25 23 23 24 21 17 15 15 14 16 18 16 11 9 7 6
0 0 0 0 0 0 0 1 4 7 9 11 15 19 23 25 29 33 33 31 29 29 31 34 36 36 37 38 37 34 29 26 25 23 21 21 22 20 16 14 14 14 13 13 12 9 7 6 4
0 0 0 0 0 0 0 1 4 7 9 12 16 21 24 25 25 27 27 28 27 27 30 33 34 35 35 35 34 32 28 25 24 22 20 21 22 20 18 17 16 14 11 8 7 6 5 3 2
0 0 0 0 0 0 0 2 4 5 6 10 16 21 23 22 19 18 21 22 22 22 26 32 34 34 34 31 30 29 26 24 24 23 21 22 23 21 19 19 16 12 8 6 4 3 2 1 0
0 0 0 0 0 0 0 1 3 4 4 7 14 20 21 18 15 14 17 21 22 22 25 31 34 34 31 27 26 27 26 25 25 24 22 22 23 22 19 16 13 9 6 4 3 2 1 0 0
0 0 0 0 0 0 0 0 1 3 4 8 14 19 19 17 14 13 18 23 25 25 27 31 33 31 27 24 24 25 26 26 26 24 22 21 21 19 16 12 8 5 4 3 3 3 2 1 0
0 0 0 0 0 0 0 0 1 3 5 10 17 20 19 18 15 14 17 24 28 27 27 31 32 29 25 22 22 24 26 28 27 23 21 21 19 16 13 9 5 2 3 3 3 3 3 2 1

GEFSSGP_con_prob3kmehi_162.txt.gz
EHI
0 0 0 0 0 0 0 0 0 0 3 8 16 25 25 15 6 3 4 11 25 41 48 55 62 62 55 46 36 27 20 16 12 10 9 9 11 14 16 16 13 9 5 2 1 0 0 0 0
0 0 0 0 0 0 0 0 0 0 4 10 16 22 22 14 8 7 8 16 32 44 47 54 65 67 59 49 39 29 21 15 11 9 8 8 10 11 13 13 10 6 3 1 0 0 0 0 0
0 0 0 0 0 0 0 0 0 2 8 14 18 22 19 12 9 11 14 24 37 45 46 54 69 72 64 55 45 34 24 16 11 9 8 8 8 8 8 9 6 3 1 0 0 0 0 0 0
0 0 0 0 0 0 0 0 0 4 12 20 25 27 20 12 12 17 21 27 38 43 44 56 71 73 67 60 50 40 29 20 13 10 9 8 9 8 6 6 4 2 1 0 0 0 0 0 0
0 0 0 0 0 0 0 1 2 7 17 28 34 33 23 15 20 26 24 25 33 41 45 56 69 71 66 60 51 43 35 25 15 10 8 8 9 8 7 5 3 2 1 0 0 0 0 0 0
0 0 0 0 0 0 0 2 5 13 21 30 37 35 24 17 23 26 22 21 27 38 47 55 62 65 63 57 50 44 36 27 18 12 9 9 9 8 7 6 4 4 3 1 0 0 0 0 0
0 0 0 0 0 0 0 1 7 16 23 27 32 31 21 16 19 22 23 24 28 38 46 50 52 56 56 51 46 40 34 26 20 14 10 9 8 7 7 6 5 5 4 2 0 0 0 0 0
0 0 0 0 0 0 0 1 6 15 20 21 24 24 19 17 22 27 31 34 35 39 44 46 45 47 47 44 39 35 30 25 19 13 10 8 5 4 4 4 5 5 3 1 0 1 1 0 0
0 0 0 0 0 0 2 3 6 10 14 17 22 24 23 27 32 38 42 41 39 38 40 41 40 39 39 37 35 31 27 23 19 12 9 6 3 1 2 2 3 4 2 1 1 2 2 1 0
0 0 0 0 0 2 4 6 6 8 11 17 25 29 31 34 38 44 46 43 38 33 29 30 32 32 32 33 32 30 26 21 17 12 8 5 3 2 2 1 2 4 4 4 5 5 3 2 2
0 0 0 0 1 3 5 6 6 9 12 16 24 31 35 38 40 44 46 42 35 28 24 23 24 25 25 26 29 27 24 19 15 11 8 6 4 3 2 1 2 5 6 7 9 7 5 3 3
0 0 0 1 2 3 4 5 6 9 12 16 24 32 37 39 41 44 44 41 36 31 29 26 25 25 23 23 26 26 22 18 14 11 8 6 5 4 2 1 3 6 7 8 9 8 4 2 2
0 0 1 2 3 3 3 5 7 10 14 21 30 36 38 39 40 41 42 43 40 37 35 34 33 31 29 27 28 27 21 15 11 9 7 7 6 5 3 3 4 5 5 6 7 6 3 1 0
0 0 1 2 2 2 3 6 8 10 18 28 36 39 38 35 34 36 40 44 45 42 40 40 38 36 35 34 31 27 21 15 10 9 8 8 8 7 5 5 5 4 3 3 3 2 1 0 0
0 0 0 1 1 2 4 6 9 12 20 31 39 40 35 31 31 35 41 45 46 46 47 45 41 37 37 37 32 27 23 18 13 11 12 12 12 11 9 9 6 3 1 1 0 0 0 0 0
0 0 0 0 0 1 4 7 11 15 20 29 38 40 35 30 31 36 41 45 47 49 51 49 44 40 39 37 33 30 27 24 19 17 17 17 16 14 11 8 5 2 0 0 0 0 0 0 0
0 0 0 0 0 1 3 7 11 16 21 28 35 37 35 33 33 36 40 45 48 50 50 47 44 41 40 37 36 34 33 29 25 22 20 17 15 13 9 5 3 1 1 0 0 0 0 0 0
0 0 0 0 0 1 3 6 11 16 23 28 31 31 32 34 35 37 41 44 44 45 44 42 40 39 39 40 39 38 35 31 27 23 20 16 14 11 6 3 3 3 2 1 0 0 0 0 0
0 0 0 0 0 0 2 6 11 18 24 27 27 28 30 33 34 37 39 39 37 36 36 35 34 33 36 40 40 38 35 30 25 22 20 17 15 10 5 4 5 5 3 2 1 1 0 0 0
0 0 0 0 0 0 1 4 10 17 24 26 25 26 27 29 31 33 33 31 30 31 31 29 28 27 30 35 36 34 31 28 23 20 18 15 13 9 5 4 5 6 5 3 3 1 0 0 0
0 0 0 0 1 0 0 1 6 14 21 23 22 22 24 25 25 27 27 27 27 28 28 26 24 24 26 28 28 27 24 24 21 17 14 12 11 9 5 4 5 6 6 5 4 3 1 0 0
0 0 0 0 0 0 0 0 3 8 14 16 17 18 20 19 19 20 23 24 24 25 25 24 24 25 24 23 23 22 20 19 17 13 9 8 9 8 5 5 5 6 6 5 4 2 1 0 0
0 0 0 0 0 0 0 0 1 4 7 11 15 17 16 15 15 17 19 21 22 23 23 24 24 24 23 22 21 19 17 15 12 8 6 5 6 6 5 5 5 4 4 3 1 1 1 0 0
0 0 0 0 0 0 0 0 0 1 4 10 15 17 15 14 16 18 18 18 20 22 23 23 23 23 22 20 19 17 16 13 10 6 4 4 4 4 4 5 4 3 3 2 0 0 0 0 0
0 0 0 0 0 0 0 0 0 1 4 10 16 16 15 15 17 19 19 19 20 21 22 22 21 20 18 17 15 14 13 11 9 7 6 4 3 3 3 4 3 3 3 2 1 0 0 0 0
0 0 0 0 0 0 0 0 0 1 4 10 15 15 15 15 16 18 18 18 18 18 21 22 20 17 15 14 12 12 11 9 7 7 6 4 3 3 3 3 3 3 3 2 1 0 0 0 0
0 0 0 0 0 0 0 0 0 0 2 7 11 13 12 13 14 14 13 13 13 15 18 20 18 15 14 12 11 10 9 7 6 6 6 5 4 3 3 3 3 3 3 2 1 0 0 0 0
0 0 0 0 0 0 0 0 0 0 1 4 8 10 11 11 11 10 9 10 10 12 15 16 14 12 11 10 10 9 6 5 4 6 6 6 5 4 3 3 3 2 1 1 0 0 0 0 0
0 0 0 0 0 0 0 0 0 0 0 3 6 8 9 9 8 8 9 10 10 10 10 10 10 9 8 8 8 7 6 4 4 6 6 6 5 4 4 3 2 1 1 1 0 0 0 0 0
0 0 0 0 0 0 0 0 0 0 1 3 6 7 7 8 7 7 9 11 10 8 7 7 8 7 7 6 6 6 6 5 4 5 5 5 4 4 4 3 1 1 2 2 1 0 0 0 0

GEFSSGP_con_prob3kmehi_168.txt.gz
EHI
0 0 0 0 0 0 0 0 0 0 0 1 3 4 4 2 1 0 1 4 15 30 39 49 59 61 58 52 48 48 48 49 49 48 46 45 45 43 38 27 17 10 5 3 2 1 0 0 0
0 0 0 0 0 0 0 0 0 0 0 2 6 10 10 5 2 1 3 9 21 34 42 50 60 64 61 54 50 49 48 49 49 46 42 40 39 37 32 24 16 10 6 4 3 2 1 0 0
0 0 0 0 0 0 0 0 0 0 0 3 9 14 13 7 4 4 7 16 28 38 44 52 62 68 67 60 53 50 48 48 46 41 36 33 31 28 24 19 14 9 6 4 4 2 1 0 0
0 0 0 0 0 0 0 0 0 0 0 4 11 15 12 7 5 8 13 22 33 38 42 52 64 71 71 64 54 49 48 47 43 36 30 28 26 23 19 15 11 7 5 4 3 3 1 1 1
0 0 0 0 0 0 0 0 0 1 2 7 15 15 10 6 7 12 17 24 32 37 41 51 64 71 69 62 55 50 48 45 41 34 29 26 23 19 16 12 9 6 5 4 3 3 3 2 2
0 0 0 0 0 0 0 0 1 3 5 10 15 14 9 7 8 12 16 21 27 36 42 49 59 65 64 59 55 51 47 44 40 36 31 26 20 15 12 10 8 6 6 5 4 4 4 3 3
0 0 0 0 0 0 0 0 2 5 8 9 11 10 8 7 10 13 17 20 25 34 42 44 48 53 56 55 52 49 45 43 42 39 33 25 17 12 9 7 6 6 6 6 5 5 5 4 5
0 0 0 0 0 0 0 0 2 4 5 7 8 7 7 12 18 22 26 25 27 32 36 37 39 43 47 48 46 45 44 42 41 38 33 24 16 11 8 6 5 4 4 4 5 5 4 5 6
0 0 0 0 0 0 0 0 1 2 4 5 6 6 12 24 33 35 33 29 28 30 31 33 35 38 42 44 42 42 42 39 36 33 29 22 15 11 8 6 5 4 3 4 4 4 4 3 3
0 0 0 0 0 0 0 0 1 2 4 5 6 10 22 36 42 40 34 27 25 26 28 31 33 36 41 41 38 36 36 35 32 28 25 21 14 9 7 6 4 3 3 4 5 6 5 2 1
0 0 0 0 0 0 0 0 0 1 2 4 8 18 33 42 42 39 32 24 21 23 27 29 31 34 37 37 35 32 30 30 28 25 23 19 13 8 7 6 5 4 3 5 7 8 6 3 1
0 0 0 0 0 0 0 0 0 1 3 6 13 27 40 44 41 36 30 23 20 21 25 29 30 30 30 32 32 30 28 26 24 22 19 16 11 7 6 6 6 4 4 6 7 7 5 2 1
0 0 0 0 0 0 1 1 2 3 5 10 19 32 41 43 39 34 28 22 20 20 22 26 27 26 26 27 28 28 26 24 22 18 14 12 8 4 4 4 4 4 4 5 6 4 3 2 1
0 0 0 0 0 1 2 3 3 4 7 12 21 30 36 37 36 34 29 25 21 19 20 23 23 22 22 24 24 24 23 22 19 14 10 8 5 3 2 1 1 1 2 3 3 2 1 1 1
0 0 0 0 0 1 2 3 3 5 8 11 17 24 29 29 30 32 32 30 26 21 19 20 21 20 19 20 21 21 20 17 13 9 8 7 5 2 0 0 0 0 0 1 1 0 1 1 1
0 0 0 0 0 0 1 1 2 5 9 12 14 18 22 23 24 27 29 30 30 25 20 19 21 20 17 17 20 20 17 13 9 6 6 7 5 1 0 0 0 0 0 0 0 0 1 1 1
0 0 0 0 0 0 0 0 2 5 9 12 14 16 19 20 20 21 23 25 27 25 20 18 20 19 17 17 19 18 14 10 6 4 5 6 6 2 0 0 0 0 0 0 0 0 0 0 0
0 0 0 0 0 0 0 0 2 5 9 12 15 17 20 18 16 16 18 18 20 20 17 16 17 17 16 17 17 16 12 7 4 3 4 5 6 4 1 0 0 0 0 0 0 0 0 0 0
0 0 0 0 0 0 0 0 2 5 8 12 16 19 18 12 9 11 13 14 15 17 16 15 16 16 17 17 16 15 12 6 4 3 4 5 5 4 1 0 0 0 0 0 0 0 0 0 0
0 0 0 0 0 0 0 0 1 4 6 8 13 17 13 7 4 6 8 11 13 16 18 18 17 18 18 16 15 13 9 6 5 4 4 5 5 3 1 0 1 0 0 0 1 0 0 0 0
0 0 0 0 0 0 0 0 1 3 4 4 7 10 10 6 3 4 6 9 12 16 18 19 19 19 18 15 12 10 7 5 5 5 5 5 5 3 1 0 0 0 0 0 0 0 0 0 0
0 0 0 0 0 0 0 0 1 2 3 4 5 6 7 6 5 5 7 9 10 13 16 18 19 20 18 15 13 10 7 6 5 5 4 4 4 3 1 0 0 0 0 0 0 0 1 1 0
0 0 0 0 0 0 0 0 1 2 3 4 5 6 6 5 6 9 11 10 9 10 12 15 17 19 18 17 13 10 8 7 6 6 5 4 2 2 1 0 0 0 0 0 0 1 2 2 1
0 0 0 0 0 0 0 0 0 1 1 3 5 6 6 6 8 13 13 10 8 8 9 13 16 17 17 16 14 10 8 7 7 7 6 5 3 2 2 1 0 0 0 0 1 2 3 3 3
0 0 0 0 0 0 0 0 0 0 1 3 5 6 7 6 9 12 13 10 8 7 8 11 15 16 15 15 13 10 8 7 8 9 8 5 3 3 3 2 2 2 1 1 1 2 2 2 2
0 0 0 0 0 0 0 0 0 0 1 3 5 6 6 6 7 10 10 10 8 7 8 10 12 13 12 12 11 9 7 8 9 9 8 5 4 3 3 3 3 3 3 2 2 2 2 1 1
0 0 0 0 0 0 0 0 0 0 1 3 4 5 6 6 6 7 9 9 8 8 8 10 10 8 7 7 8 7 7 7 8 7 6 5 3 3 3 3 3 3 3 3 3 3 2 1 1
0 0 0 0 0 0 0 0 0 0 1 2 3 3 4 4 4 6 7 7 7 7 7 7 6 5 4 4 6 6 6 6 6 6 5 4 3 3 3 3 3 3 3 3 3 3 2 1 0
0 0 0 0 0 0 0 0 0 0 0 1 1 1 2 2 4 6 6 6 6 6 5 4 3 3 3 4 5 6 5 4 4 5 4 3 3 3 3 3 3 3 3 3 2 2 1 0 0
0 0 0 0 0 0 0 0 0 0 0 0 1 1 1 1 3 6 6 6 5 5 4 2 2 3 3 4 4 4 4 3 3 4 4 3 3 3 3 3 3 3 3 2 1 1 0 0 0

GEFSSGP_con_prob3kmehi_174.txt.gz
EHI
0 0 0 0 0 0 0 0 0 0 0 0 0 1 2 3 2 2 4 9 18 33 45 48 46 45 41 40 45 55 61 63 66 70 70 64 56 47 35 21 12 9 5 3 2 1 2 2 2
0 0 0 0 0 0 0 0 0 0 0 0 1 2 2 3 2 2 5 12 22 34 43 47 48 47 44 44 48 56 62 63 63 66 67 63 57 51 40 26 16 11 7 4 1 0 1 1 1
0 0 0 0 0 0 0 0 0 0 0 1 2 2 2 2 3 4 7 16 25 32 39 46 50 49 48 48 50 57 61 61 60 61 61 60 57 52 43 30 20 14 10 6 2 1 1 0 0
0 0 0 0 0 0 0 0 0 0 1 1 2 1 2 3 4 7 13 20 26 29 34 44 50 49 48 47 50 55 59 59 59 59 58 56 53 49 41 30 20 14 11 7 5 4 2 1 0
0 0 0 0 0 0 0 0 0 1 2 2 2 2 5 7 10 14 19 23 27 28 33 42 48 46 42 41 46 51 55 56 58 58 56 53 49 45 38 28 19 13 10 7 6 6 5 2 1
0 0 0 0 0 0 0 0 0 1 3 3 3 4 8 15 21 24 24 24 27 30 36 43 46 42 38 38 42 46 49 51 54 54 52 48 44 39 33 25 18 13 10 8 6 6 6 5 4
0 0 0 0 0 0 1 1 2 3 4 2 2 4 9 22 36 39 32 27 30 33 37 41 42 40 38 38 40 42 44 46 47 47 44 41 37 31 26 22 17 13 11 9 8 7 7 6 6
0 0 0 0 0 1 3 4 5 5 4 2 2 3 11 29 47 50 44 38 37 37 37 38 38 36 36 37 39 40 41 43 42 39 36 32 28 23 20 17 15 13 11 10 9 8 7 5 4
0 0 0 0 0 2 5 6 6 5 4 3 2 5 15 33 49 55 53 48 46 44 40 37 35 33 31 34 39 40 39 40 36 32 30 26 20 17 16 17 17 14 11 8 8 8 7 4 2
0 0 0 0 0 2 4 5 4 3 2 2 3 8 19 34 46 52 54 52 50 48 44 39 36 32 31 34 38 39 39 38 33 29 28 24 19 16 17 21 21 15 9 7 6 8 7 3 1
0 0 0 0 0 1 3 3 2 2 2 3 5 11 20 30 37 42 47 48 47 48 48 44 39 35 33 35 39 41 42 41 36 32 31 27 25 24 23 24 23 16 10 8 9 8 6 3 1
0 0 0 0 0 1 2 2 3 4 4 5 8 12 18 23 26 32 37 41 43 47 49 46 43 41 38 39 41 42 42 42 41 38 35 32 31 30 28 26 22 18 16 16 16 12 7 5 4
0 0 0 0 1 3 3 3 4 5 6 7 8 11 14 15 19 25 30 35 41 45 46 44 45 45 44 43 41 38 38 38 39 40 39 35 34 33 29 24 21 19 19 21 20 15 10 7 7
0 0 0 0 1 3 4 4 5 6 7 6 8 10 12 14 17 21 26 32 39 41 40 41 44 45 45 42 38 33 31 31 31 35 37 35 35 36 32 24 20 18 18 19 19 17 12 10 10
0 0 0 0 1 2 3 3 4 6 6 7 8 11 13 16 18 20 24 30 35 35 35 36 37 39 40 39 35 31 27 25 25 28 30 30 31 35 33 25 19 18 18 20 20 19 15 12 11
0 0 0 0 0 1 1 2 3 4 6 8 11 12 14 17 19 19 22 27 31 33 34 32 30 31 36 37 35 32 28 24 23 23 24 25 27 30 29 22 19 21 23 23 21 19 16 13 12
0 0 0 0 0 1 2 2 3 3 6 11 13 13 14 16 18 17 19 23 28 32 34 30 26 27 31 34 34 32 29 25 22 22 23 24 25 26 23 18 19 24 27 25 21 19 17 14 13
0 0 0 0 0 1 2 3 3 5 8 12 14 14 12 13 14 14 16 21 27 31 32 30 27 27 30 31 30 29 27 24 22 23 23 23 23 22 19 17 19 23 25 24 21 17 15 15 16
0 0 0 0 0 1 2 4 4 6 9 11 13 12 10 9 10 12 15 19 26 31 31 31 30 30 32 32 30 28 26 23 23 24 22 19 18 18 17 16 18 20 21 21 19 14 11 12 14
0 0 0 0 0 0 1 3 5 6 7 9 10 10 9 9 9 11 12 15 21 26 27 28 29 30 31 31 29 29 27 25 24 23 20 16 14 15 15 17 20 21 20 18 16 13 9 8 10
0 0 0 0 0 0 0 2 4 5 6 7 8 9 10 10 10 9 10 11 15 19 20 21 24 26 27 26 24 24 25 24 22 20 17 14 13 14 16 19 22 23 20 18 17 15 11 9 10
0 0 0 0 0 0 0 1 2 5 6 7 9 10 10 11 11 9 9 10 11 14 16 17 21 24 24 22 19 18 19 20 19 18 16 14 12 12 14 17 20 21 20 19 18 17 14 13 12
0 0 0 0 0 0 0 0 1 4 6 8 11 12 12 12 11 9 8 8 9 10 12 15 19 21 21 19 17 16 17 18 18 17 16 15 13 10 10 13 16 18 19 19 19 17 15 12 10
0 0 0 0 0 0 0 0 2 4 6 8 10 12 13 12 11 9 7 6 6 6 9 12 14 17 18 17 16 16 17 18 17 16 15 14 13 10 9 10 13 15 17 17 17 15 11 9 7
0 0 0 0 0 0 0 1 4 6 6 6 7 10 11 10 10 9 7 5 5 5 7 9 11 13 15 16 18 18 18 18 16 14 14 13 13 11 9 9 11 13 15 15 14 12 9 7 7
0 0 0 0 0 0 0 1 4 4 4 3 4 6 7 7 9 9 8 6 6 7 8 9 10 12 14 16 18 18 18 18 16 14 12 12 11 9 8 8 8 11 12 11 9 8 8 8 9
0 0 0 0 0 0 0 0 1 2 2 2 2 4 5 6 8 10 9 8 8 8 7 8 9 11 13 15 15 15 15 15 15 13 11 9 8 6 5 6 6 7 8 7 6 7 8 9 10
0 0 0 0 0 0 0 0 0 0 0 1 2 4 6 7 8 10 10 9 9 7 4 5 8 10 11 13 12 12 13 11 10 10 8 7 6 4 3 4 6 6 6 5 5 6 7 8 8
0 0 0 0 0 0 0 0 0 0 0 0 2 5 6 6 7 9 9 9 8 5 2 2 5 7 9 11 10 10 10 8 8 8 7 6 6 4 3 4 6 6 6 5 5 5 5 5 5
0 0 0 0 0 0 0 0 0 0 0 0 2 5 7 6 6 8 9 9 8 5 2 2 4 5 8 9 9 8 8 7 9 9 7 6 6 4 3 4 6 6 5 4 4 3 3 2 3

GEFSSGP_con_prob3kmehi_180.txt.gz
EHI
0 0 0 0 0 0 0 0 1 0 0 0 0 1 3 4 3 4 8 21 42 56 58 58 58 52 39 26 19 15 10 7 8 8 8 7 7 8 8 6 5 5 2 0 0 0 0 0 0
0 0 0 0 0 0 0 0 1 0 0 0 0 1 4 6 4 4 11 26 44 52 54 57 60 55 42 29 21 17 14 13 14 14 12 10 10 9 8 6 5 5 3 1 0 0 0 0 0
0 0 0 0 0 0 0 0 0 0 1 1 1 4 8 8 5 6 14 28 41 48 54 62 65 58 45 32 23 18 16 18 21 21 18 17 16 13 10 8 6 6 5 4 2 1 1 1 0
0 0 0 0 0 0 0 0 0 0 1 2 3 9 14 14 10 10 15 22 35 49 59 67 69 61 47 33 23 18 17 20 24 26 26 26 24 20 15 11 8 7 6 6 5 4 3 2 1
0 0 0 0 0 1 1 1 1 0 1 2 5 12 19 21 18 17 16 19 33 52 62 65 68 63 48 34 24 19 19 21 25 29 32 32 31 28 22 14 10 9 9 8 8 8 6 4 2
0 0 0 0 1 1 2 3 2 1 0 1 4 10 17 22 22 19 17 20 34 53 62 60 61 60 49 36 27 21 19 20 24 30 33 33 32 30 25 18 13 12 11 10 10 10 8 5 5
0 0 0 1 2 2 2 2 2 1 1 2 4 8 16 22 22 18 20 24 34 52 60 54 52 52 45 37 31 26 22 21 25 29 31 30 27 25 22 20 18 13 12 12 11 10 8 7 6
0 0 0 1 2 2 1 1 1 2 3 6 8 10 18 24 22 20 24 27 33 47 55 51 47 45 40 35 35 34 29 26 27 28 29 27 22 18 17 19 19 15 12 12 12 11 10 7 6
0 0 0 0 1 1 1 1 1 2 5 9 12 14 19 21 20 22 26 28 34 44 50 47 44 40 33 32 37 40 37 32 29 27 26 23 19 15 14 18 25 24 18 15 13 12 10 8 6
0 0 0 0 0 0 1 1 1 2 6 10 13 16 17 16 17 21 25 29 35 43 46 43 40 38 32 33 40 43 41 39 33 28 27 24 20 16 15 23 35 37 29 21 14 11 10 7 6
0 0 0 0 0 0 1 1 1 3 7 11 14 15 16 16 17 20 24 28 34 41 44 41 40 40 39 41 46 46 45 45 40 34 33 30 24 20 20 30 43 44 36 25 16 12 9 6 5
0 0 0 0 0 1 1 2 4 6 9 12 13 14 16 17 18 19 23 28 34 41 44 44 44 46 49 52 52 48 47 48 47 43 40 35 29 25 25 35 44 43 37 28 20 15 11 8 7
0 0 0 0 0 1 3 4 6 8 10 11 11 11 15 19 21 23 27 31 37 45 49 50 52 55 58 59 57 51 49 49 49 49 47 41 34 29 30 37 44 42 37 32 24 17 15 14 13
0 0 0 0 0 1 2 3 4 6 8 9 9 10 15 24 28 31 33 36 42 50 55 57 59 62 64 63 60 57 54 52 52 53 52 48 40 35 34 38 43 42 36 30 25 20 20 21 19
0 0 0 0 1 1 1 1 3 5 7 8 9 12 19 27 30 32 35 40 48 55 59 61 63 65 66 63 61 59 57 55 56 54 52 48 43 40 38 38 43 43 34 25 23 24 25 24 20
0 0 0 0 1 2 2 1 3 4 6 9 13 16 22 27 28 27 31 40 49 56 61 62 61 64 64 62 61 59 56 54 54 52 49 45 42 42 40 38 41 40 31 22 21 24 25 23 20
0 0 0 0 1 3 3 2 3 4 6 11 15 18 23 26 25 24 27 37 48 56 60 60 59 60 60 59 59 57 52 48 47 46 46 43 41 40 39 39 39 36 29 23 22 23 22 20 20
0 0 0 0 1 2 3 3 3 4 5 9 15 20 23 24 25 25 28 36 47 55 58 59 58 56 55 55 55 53 47 43 41 41 42 41 39 38 38 38 36 32 28 25 25 25 22 18 17
0 0 0 0 1 2 3 4 4 4 6 9 15 22 25 25 25 27 30 35 44 51 53 54 54 52 50 51 52 48 41 38 37 36 37 37 36 35 35 35 33 30 27 26 26 25 22 17 14
0 0 0 0 0 1 2 4 5 6 8 11 15 23 27 28 27 26 27 31 38 45 46 47 48 47 46 47 47 41 36 33 33 33 34 33 32 32 32 32 32 29 27 26 26 24 20 16 13
0 0 0 0 0 1 1 2 5 8 10 12 14 20 26 28 27 24 22 26 33 39 42 43 44 42 40 40 38 35 33 33 34 35 34 31 30 30 31 31 31 29 28 27 26 23 19 14 11
0 0 0 0 0 0 0 1 6 11 12 12 13 16 21 25 26 24 21 23 29 34 39 42 43 39 35 33 32 31 32 33 34 35 34 32 31 30 30 30 29 28 27 26 25 22 18 13 9
0 0 0 0 0 0 0 1 6 11 12 12 11 12 16 21 23 21 20 23 28 32 36 39 39 35 31 29 29 28 28 28 28 30 32 32 31 29 28 27 26 24 21 21 22 20 17 13 11
0 0 0 0 0 0 0 1 4 8 10 10 9 10 13 16 17 17 18 23 27 30 32 33 32 28 25 25 26 25 24 23 22 25 28 29 27 26 25 23 21 19 16 16 16 15 14 13 12
0 0 0 0 0 0 0 1 3 5 6 7 7 9 12 13 12 13 16 20 23 25 27 28 27 23 20 21 23 23 21 19 19 20 21 21 19 19 19 18 16 15 13 12 10 10 11 11 10
0 0 0 0 0 0 0 1 2 3 4 4 5 8 11 12 12 11 12 15 18 21 22 23 22 20 19 18 19 19 16 14 14 14 14 13 12 12 13 13 12 12 10 9 8 9 9 9 8
0 0 0 0 0 0 0 1 3 5 5 4 5 7 9 11 12 11 10 12 16 18 18 17 17 17 16 14 14 14 13 12 11 10 10 10 9 9 10 10 9 8 7 6 7 8 8 7 7
0 0 0 0 0 0 0 1 4 5 4 3 4 6 7 9 11 11 10 12 14 15 14 12 12 13 12 11 11 10 9 9 9 9 9 8 8 9 8 7 5 5 4 4 5 7 7 6 6
0 0 0 0 0 0 0 0 1 2 1 1 2 5 8 9 10 11 10 10 12 12 11 9 8 7 7 7 8 8 6 5 7 9 8 7 7 6 5 3 2 2 3 3 4 5 6 6 5
0 0 0 0 0 0 0 0 0 0 0 0 1 5 9 11 11 10 9 8 9 10 10 8 5 4 5 5 5 6 5 4 6 7 7 6 6 4 3 2 2 2 2 3 3 4 6 6 4